AMX888X SBCF-MMTJ

Flight info

Callsign AMX888X
Flight time 11h 53m
Altitude 36000
Route GIMPO UZ33 MOLTI UM409 UGUGA UZ33 VUNEV/N0492F380 UZ33 OBLIS DCT DADKA UM549 TBG UM419 AROVI/N0487F390 UM419 ANSON/N0489F380 UM419 ASOKU/N0485F400 UL655 PPE UJ3 TANRI TANRI1B
Aircraft B789/H-SDE1E2E3FGHIJ2J3J4J5M1RWXY/LB1D1

Departure

Time 2026-04-20 09:28
Airport Tancredo Neves International Airport (SBCF)

Arrival

Time 2026-04-20 21:22
Airport General Abelardo L. Rodriguez International Airport (MMTJ)
Time Latitude Longitude Altitude Speed Heading
2026-04-20 09:01 -19.63377 -43.96345 2727 ft 0 kts 34°
2026-04-20 09:18 -19.63379 -43.96347 2726 ft 2 kts 34°
2026-04-20 09:18 -19.63391 -43.96355 2726 ft 2 kts 34°
2026-04-20 09:18 -19.63397 -43.96360 2726 ft 2 kts 33°
2026-04-20 09:19 -19.63410 -43.96366 2725 ft 2 kts
2026-04-20 09:19 -19.63424 -43.96364 2725 ft 2 kts 336°
2026-04-20 09:19 -19.63436 -43.96356 2725 ft 2 kts 310°
2026-04-20 09:19 -19.63440 -43.96351 2725 ft 1 kts 301°
2026-04-20 09:20 -19.63441 -43.96350 2725 ft 0 kts 302°
2026-04-20 09:22 -19.63432 -43.96365 2725 ft 9 kts 304°
2026-04-20 09:23 -19.63302 -43.96507 2725 ft 20 kts 326°
2026-04-20 09:23 -19.63237 -43.96675 2721 ft 20 kts 239°
2026-04-20 09:23 -19.63217 -43.96802 2717 ft 22 kts 316°
2026-04-20 09:23 -19.63072 -43.96936 2715 ft 33 kts 319°
2026-04-20 09:24 -19.62873 -43.97123 2715 ft 42 kts 319°
2026-04-20 09:24 -19.62654 -43.97323 2718 ft 41 kts 319°
2026-04-20 09:24 -19.62440 -43.97522 2722 ft 41 kts 319°
2026-04-20 09:24 -19.62245 -43.97718 2713 ft 31 kts 283°
2026-04-20 09:25 -19.62375 -43.97807 2701 ft 11 kts 159°
2026-04-20 09:25 -19.62392 -43.97795 2702 ft 0 kts 139°
2026-04-20 09:27 -19.62393 -43.97795 2702 ft 1 kts 139°
2026-04-20 09:27 -19.62500 -43.97697 2705 ft 49 kts 139°
2026-04-20 09:28 -19.62855 -43.97367 2701 ft 101 kts 139°
2026-04-20 09:28 -19.63443 -43.96821 2703 ft 147 kts 139°
2026-04-20 09:28 -19.64236 -43.96104 2756 ft 180 kts 140°
2026-04-20 09:28 -19.65078 -43.95368 3348 ft 169 kts 141°
2026-04-20 09:29 -19.65920 -43.94660 3727 ft 172 kts 142°
2026-04-20 09:29 -19.66786 -43.93926 4091 ft 176 kts 140°
2026-04-20 09:29 -19.67636 -43.93167 4457 ft 179 kts 140°
2026-04-20 09:29 -19.68467 -43.92425 4743 ft 185 kts 140°
2026-04-20 09:30 -19.69395 -43.91629 5073 ft 190 kts 148°
2026-04-20 09:30 -19.70531 -43.91169 5250 ft 205 kts 171°
2026-04-20 09:30 -19.71834 -43.91277 5409 ft 222 kts 196°
2026-04-20 09:30 -19.73048 -43.91964 5551 ft 239 kts 219°
2026-04-20 09:31 -19.73990 -43.93208 5998 ft 243 kts 239°
2026-04-20 09:31 -19.74567 -43.94550 6685 ft 233 kts 250°
2026-04-20 09:31 -19.74777 -43.95687 6942 ft 241 kts 269°
2026-04-20 09:31 -19.74390 -43.97330 7122 ft 260 kts 300°
2026-04-20 09:32 -19.73243 -43.98563 7320 ft 278 kts 328°
2026-04-20 09:32 -19.71536 -43.99286 7851 ft 282 kts 340°
2026-04-20 09:32 -19.69843 -43.99914 8635 ft 278 kts 340°
2026-04-20 09:32 -19.68114 -44.00548 9204 ft 283 kts 340°
2026-04-20 09:33 -19.66298 -44.01183 9669 ft 292 kts 341°
2026-04-20 09:33 -19.64454 -44.01798 10260 ft 294 kts 341°
2026-04-20 09:33 -19.62981 -44.02281 10829 ft 293 kts 340°
2026-04-20 09:33 -19.61097 -44.02928 11394 ft 296 kts 340°
2026-04-20 09:34 -19.59200 -44.03591 11811 ft 305 kts 339°
2026-04-20 09:34 -19.57333 -44.04268 12218 ft 312 kts 339°
2026-04-20 09:34 -19.53234 -44.05760 13179 ft 325 kts 339°
2026-04-20 09:35 -19.51066 -44.06535 13655 ft 331 kts 339°
2026-04-20 09:35 -19.48835 -44.07323 14121 ft 338 kts 339°
2026-04-20 09:35 -19.46575 -44.08120 14587 ft 345 kts 339°
2026-04-20 09:35 -19.44297 -44.08924 15045 ft 351 kts 339°
2026-04-20 09:36 -19.41950 -44.09782 15512 ft 356 kts 339°
2026-04-20 09:36 -19.39731 -44.10592 15944 ft 362 kts 339°
2026-04-20 09:36 -19.37272 -44.11493 16416 ft 367 kts 339°
2026-04-20 09:36 -19.34810 -44.12395 16883 ft 372 kts 339°
2026-04-20 09:37 -19.32307 -44.13311 17349 ft 377 kts 339°
2026-04-20 09:37 -19.29890 -44.14198 17793 ft 381 kts 338°
2026-04-20 09:37 -19.27565 -44.15545 18259 ft 379 kts 319°
2026-04-20 09:37 -19.25472 -44.17382 18762 ft 381 kts 316°
2026-04-20 09:38 -19.23419 -44.19320 19234 ft 384 kts 315°
2026-04-20 09:38 -19.21510 -44.21178 19674 ft 387 kts 314°
2026-04-20 09:38 -19.19499 -44.23158 20121 ft 390 kts 314°
2026-04-20 09:38 -19.17484 -44.25155 20501 ft 395 kts 314°
2026-04-20 09:39 -19.15441 -44.27183 20891 ft 400 kts 314°
2026-04-20 09:39 -19.13393 -44.29210 21274 ft 404 kts 314°
2026-04-20 09:39 -19.11607 -44.30977 21606 ft 407 kts 314°
2026-04-20 09:39 -19.09563 -44.32999 21983 ft 411 kts 314°
2026-04-20 09:40 -19.07500 -44.35038 22360 ft 414 kts 313°
2026-04-20 09:40 -19.05435 -44.37079 22735 ft 418 kts 314°
2026-04-20 09:40 -19.03532 -44.38959 23076 ft 421 kts 313°
2026-04-20 09:40 -19.01436 -44.41028 23449 ft 423 kts 313°
2026-04-20 09:41 -18.99377 -44.43074 23814 ft 426 kts 313°
2026-04-20 09:41 -18.97241 -44.45212 24191 ft 428 kts 313°
2026-04-20 09:41 -18.95094 -44.47363 24568 ft 431 kts 313°
2026-04-20 09:41 -18.92906 -44.49557 24915 ft 434 kts 313°
2026-04-20 09:42 -18.90710 -44.51762 25247 ft 437 kts 312°
2026-04-20 09:42 -18.88712 -44.53768 25543 ft 440 kts 312°
2026-04-20 09:42 -18.86657 -44.55830 25840 ft 443 kts 312°
2026-04-20 09:42 -18.84454 -44.58039 26158 ft 445 kts 312°
2026-04-20 09:43 -18.82448 -44.60050 26444 ft 448 kts 312°
2026-04-20 09:43 -18.80887 -44.61616 26666 ft 450 kts 312°
2026-04-20 09:43 -18.78687 -44.63819 26976 ft 452 kts 312°
2026-04-20 09:43 -18.76576 -44.65933 27275 ft 454 kts 312°
2026-04-20 09:44 -18.74385 -44.68125 27592 ft 456 kts 312°
2026-04-20 09:44 -18.72338 -44.70171 27894 ft 458 kts 312°
2026-04-20 09:44 -18.70101 -44.72409 28236 ft 459 kts 312°
2026-04-20 09:44 -18.67835 -44.74674 28581 ft 460 kts 312°
2026-04-20 09:45 -18.65571 -44.76936 28925 ft 461 kts 311°
2026-04-20 09:45 -18.63326 -44.79179 29263 ft 462 kts 311°
2026-04-20 09:45 -18.61100 -44.81399 29598 ft 462 kts 311°
2026-04-20 09:45 -18.59364 -44.83132 29860 ft 463 kts 311°
2026-04-20 09:46 -18.57253 -44.85239 30176 ft 463 kts 311°
2026-04-20 09:46 -18.55086 -44.87401 30500 ft 463 kts 311°
2026-04-20 09:46 -18.52819 -44.89662 30840 ft 463 kts 311°
2026-04-20 09:46 -18.50574 -44.91898 31174 ft 462 kts 311°
2026-04-20 09:47 -18.48333 -44.94132 31507 ft 462 kts 310°
2026-04-20 09:47 -18.46109 -44.96346 31838 ft 461 kts 310°
2026-04-20 09:47 -18.43929 -44.98518 32164 ft 460 kts 310°
2026-04-20 09:47 -18.41930 -45.00506 32461 ft 459 kts 310°
2026-04-20 09:48 -18.39759 -45.02666 32783 ft 458 kts 310°
2026-04-20 09:48 -18.37548 -45.04865 33112 ft 456 kts 310°
2026-04-20 09:48 -18.35360 -45.07040 33437 ft 455 kts 310°
2026-04-20 09:48 -18.33212 -45.09175 33760 ft 453 kts 310°
2026-04-20 09:49 -18.31027 -45.11346 34073 ft 451 kts 310°
2026-04-20 09:49 -18.28898 -45.13464 34120 ft 455 kts 310°
2026-04-20 09:49 -18.24630 -45.17709 34139 ft 466 kts 310°
2026-04-20 09:50 -18.20061 -45.22244 34135 ft 478 kts 310°
2026-04-20 09:50 -18.15339 -45.26923 34129 ft 483 kts 310°
2026-04-20 09:51 -18.10550 -45.31662 34126 ft 481 kts 310°
2026-04-20 09:51 -18.05926 -45.36236 34125 ft 481 kts 310°
2026-04-20 09:52 -18.01107 -45.41002 34117 ft 481 kts 310°
2026-04-20 09:52 -17.96244 -45.45809 34107 ft 480 kts 310°
2026-04-20 09:53 -17.91344 -45.50647 34100 ft 480 kts 310°
2026-04-20 09:53 -17.86857 -45.55075 34091 ft 480 kts 310°
2026-04-20 09:54 -17.82443 -45.59427 34092 ft 481 kts 310°
2026-04-20 09:54 -17.77830 -45.63972 34090 ft 481 kts 310°
2026-04-20 09:55 -17.73304 -45.68428 34103 ft 482 kts 310°
2026-04-20 09:55 -17.68751 -45.72908 34102 ft 481 kts 310°
2026-04-20 09:56 -17.64402 -45.77185 34102 ft 481 kts 310°
2026-04-20 09:56 -17.59548 -45.81954 34102 ft 481 kts 310°
2026-04-20 09:57 -17.54627 -45.86785 34104 ft 481 kts 310°
2026-04-20 09:57 -17.49770 -45.91548 34109 ft 481 kts 310°
2026-04-20 09:58 -17.44969 -45.96253 34114 ft 481 kts 310°
2026-04-20 09:58 -17.40240 -46.00884 34115 ft 481 kts 310°
2026-04-20 09:59 -17.35360 -46.05660 34114 ft 483 kts 310°
2026-04-20 09:59 -17.30467 -46.10443 34107 ft 483 kts 310°
2026-04-20 10:00 -17.25614 -46.15185 34100 ft 483 kts 310°
2026-04-20 10:00 -17.20955 -46.19733 34100 ft 483 kts 310°
2026-04-20 10:01 -17.16052 -46.24515 34101 ft 484 kts 310°
2026-04-20 10:01 -17.11078 -46.29364 34100 ft 484 kts 310°
2026-04-20 10:02 -17.06121 -46.34194 34100 ft 484 kts 310°
2026-04-20 10:02 -17.01355 -46.38832 34099 ft 485 kts 310°
2026-04-20 10:03 -16.96515 -46.43539 34100 ft 485 kts 310°
2026-04-20 10:03 -16.91542 -46.48372 34099 ft 485 kts 310°
2026-04-20 10:04 -16.87129 -46.52657 34091 ft 485 kts 310°
2026-04-20 10:04 -16.82906 -46.57091 34088 ft 475 kts 300°
2026-04-20 10:05 -16.79561 -46.62021 34091 ft 475 kts 299°
2026-04-20 10:05 -16.76095 -46.67254 34104 ft 476 kts 298°
2026-04-20 10:06 -16.72645 -46.72520 34102 ft 476 kts 298°
2026-04-20 10:06 -16.69249 -46.77722 34102 ft 475 kts 298°
2026-04-20 10:07 -16.65648 -46.83247 34094 ft 475 kts 298°
2026-04-20 10:07 -16.62164 -46.88589 34072 ft 475 kts 298°
2026-04-20 10:08 -16.58513 -46.94185 34049 ft 475 kts 298°
2026-04-20 10:08 -16.54840 -46.99817 34024 ft 476 kts 298°
2026-04-20 10:09 -16.51162 -47.05444 34000 ft 475 kts 298°
2026-04-20 10:09 -16.47835 -47.10535 33998 ft 475 kts 298°
2026-04-20 10:10 -16.44248 -47.16016 33999 ft 476 kts 298°
2026-04-20 10:10 -16.40768 -47.21333 33998 ft 476 kts 298°
2026-04-20 10:11 -16.36759 -47.26314 34017 ft 484 kts 308°
2026-04-20 10:11 -16.32468 -47.30918 33999 ft 485 kts 308°
2026-04-20 10:12 -16.28079 -47.35558 34019 ft 486 kts 308°
2026-04-20 10:12 -16.23520 -47.40353 34055 ft 486 kts 309°
2026-04-20 10:13 -16.18905 -47.45197 34092 ft 487 kts 309°
2026-04-20 10:13 -16.14330 -47.49989 34125 ft 487 kts 309°
2026-04-20 10:14 -16.09799 -47.54730 34125 ft 487 kts 309°
2026-04-20 10:14 -16.05451 -47.59277 34124 ft 487 kts 309°
2026-04-20 10:15 -16.00880 -47.64055 34125 ft 488 kts 309°
2026-04-20 10:15 -15.96720 -47.68400 34135 ft 488 kts 309°
2026-04-20 10:16 -15.92444 -47.72862 34134 ft 488 kts 309°
2026-04-20 10:16 -15.88392 -47.77087 34128 ft 488 kts 309°
2026-04-20 10:17 -15.84606 -47.81034 34127 ft 488 kts 309°
2026-04-20 10:17 -15.80602 -47.85204 34127 ft 488 kts 309°
2026-04-20 10:18 -15.76405 -47.89573 34127 ft 488 kts 309°
2026-04-20 10:18 -15.72248 -47.93899 34126 ft 488 kts 309°
2026-04-20 10:19 -15.68090 -47.98222 34126 ft 488 kts 309°
2026-04-20 10:19 -15.64027 -48.02446 34126 ft 488 kts 309°
2026-04-20 10:20 -15.59777 -48.06859 34127 ft 488 kts 309°
2026-04-20 10:20 -15.55505 -48.11294 34127 ft 489 kts 309°
2026-04-20 10:21 -15.51242 -48.15714 34126 ft 489 kts 309°
2026-04-20 10:21 -15.46918 -48.20014 34126 ft 491 kts 311°
2026-04-20 10:22 -15.42789 -48.23978 34126 ft 491 kts 312°
2026-04-20 10:22 -15.38597 -48.27992 34126 ft 491 kts 312°
2026-04-20 10:23 -15.35229 -48.31211 34126 ft 491 kts 312°
2026-04-20 10:23 -15.31324 -48.34941 34244 ft 492 kts 312°
2026-04-20 10:24 -15.29148 -48.37018 34498 ft 490 kts 312°
2026-04-20 10:24 -15.26960 -48.39104 34868 ft 486 kts 312°
2026-04-20 10:24 -15.24815 -48.41149 35219 ft 482 kts 312°
2026-04-20 10:24 -15.22678 -48.43189 35573 ft 479 kts 312°
2026-04-20 10:25 -15.20652 -48.45119 35910 ft 475 kts 312°
2026-04-20 10:25 -15.18483 -48.47186 36116 ft 475 kts 312°
2026-04-20 10:25 -15.13991 -48.51473 36133 ft 484 kts 312°
2026-04-20 10:26 -15.09595 -48.55659 36130 ft 490 kts 312°
2026-04-20 10:26 -15.05243 -48.59798 36124 ft 490 kts 312°
2026-04-20 10:27 -15.00843 -48.63955 36124 ft 489 kts 313°
2026-04-20 10:27 -14.96606 -48.67929 36134 ft 490 kts 313°
2026-04-20 10:28 -14.92017 -48.72229 36134 ft 490 kts 313°
2026-04-20 10:28 -14.87565 -48.76398 36127 ft 490 kts 313°
2026-04-20 10:29 -14.83173 -48.80508 36127 ft 490 kts 313°
2026-04-20 10:29 -14.78688 -48.84703 36127 ft 490 kts 313°
2026-04-20 10:30 -14.74291 -48.88813 36127 ft 491 kts 313°
2026-04-20 10:30 -14.69738 -48.93065 36127 ft 491 kts 313°
2026-04-20 10:31 -14.65130 -48.97368 36126 ft 491 kts 313°
2026-04-20 10:31 -14.60511 -49.01677 36117 ft 491 kts 313°
2026-04-20 10:32 -14.55861 -49.06012 36108 ft 491 kts 313°
2026-04-20 10:32 -14.51378 -49.10192 36095 ft 492 kts 314°
2026-04-20 10:33 -14.46706 -49.14541 36084 ft 491 kts 314°
2026-04-20 10:33 -14.41977 -49.18943 36076 ft 491 kts 314°
2026-04-20 10:34 -14.37211 -49.23378 36072 ft 492 kts 314°
2026-04-20 10:35 -14.30157 -49.29934 36073 ft 492 kts 314°
2026-04-20 10:35 -14.25581 -49.34187 36074 ft 494 kts 314°
2026-04-20 10:36 -14.20833 -49.38593 36072 ft 494 kts 314°
2026-04-20 10:36 -14.16029 -49.43053 36073 ft 493 kts 314°
2026-04-20 10:37 -14.11349 -49.47390 36073 ft 493 kts 314°
2026-04-20 10:37 -14.06618 -49.51774 36073 ft 493 kts 314°
2026-04-20 10:38 -14.02654 -49.56524 36135 ft 483 kts 296°
2026-04-20 10:38 -13.99566 -49.62075 36080 ft 485 kts 295°
2026-04-20 10:39 -13.96590 -49.67673 36080 ft 485 kts 295°
2026-04-20 10:39 -13.93658 -49.73283 36078 ft 485 kts 295°
2026-04-20 10:40 -13.90812 -49.78766 36078 ft 485 kts 295°
2026-04-20 10:40 -13.88115 -49.83974 36072 ft 485 kts 294°
2026-04-20 10:41 -13.85140 -49.89722 36072 ft 485 kts 294°
2026-04-20 10:41 -13.82175 -49.95450 36070 ft 485 kts 294°
2026-04-20 10:42 -13.79278 -50.01044 36063 ft 485 kts 294°
2026-04-20 10:42 -13.76322 -50.06748 36057 ft 485 kts 294°
2026-04-20 10:43 -13.73518 -50.12155 36051 ft 485 kts 294°
2026-04-20 10:43 -13.70592 -50.17797 36045 ft 485 kts 294°
2026-04-20 10:44 -13.67608 -50.23542 36044 ft 485 kts 295°
2026-04-20 10:44 -13.64627 -50.29276 36044 ft 485 kts 295°
2026-04-20 10:45 -13.61700 -50.34906 36044 ft 485 kts 295°
2026-04-20 10:45 -13.58870 -50.40346 36044 ft 485 kts 295°
2026-04-20 10:46 -13.55920 -50.46013 36044 ft 486 kts 295°
2026-04-20 10:46 -13.52945 -50.51720 36044 ft 486 kts 295°
2026-04-20 10:47 -13.49985 -50.57399 36044 ft 486 kts 295°
2026-04-20 10:47 -13.47027 -50.63067 36043 ft 486 kts 295°
2026-04-20 10:48 -13.44244 -50.68397 36049 ft 486 kts 295°
2026-04-20 10:48 -13.41294 -50.74044 36048 ft 486 kts 295°
2026-04-20 10:49 -13.38314 -50.79748 36049 ft 487 kts 295°
2026-04-20 10:49 -13.35335 -50.85441 36048 ft 487 kts 295°
2026-04-20 10:50 -13.32374 -50.91094 36046 ft 487 kts 295°
2026-04-20 10:50 -13.29530 -50.96524 36040 ft 487 kts 295°
2026-04-20 10:51 -13.26584 -51.02147 36033 ft 488 kts 295°
2026-04-20 10:51 -13.23590 -51.07853 36027 ft 488 kts 295°
2026-04-20 10:52 -13.20643 -51.13467 36021 ft 488 kts 295°
2026-04-20 10:52 -13.17662 -51.19147 36020 ft 488 kts 295°
2026-04-20 10:53 -13.14779 -51.24631 36019 ft 488 kts 295°
2026-04-20 10:53 -13.11800 -51.30294 36020 ft 488 kts 295°
2026-04-20 10:54 -13.08814 -51.35967 36020 ft 488 kts 295°
2026-04-20 10:54 -13.05934 -51.41440 36021 ft 489 kts 295°
2026-04-20 10:55 -13.02947 -51.47108 36019 ft 489 kts 295°
2026-04-20 10:55 -13.00088 -51.52528 36019 ft 489 kts 295°
2026-04-20 10:56 -12.97067 -51.58255 36020 ft 489 kts 295°
2026-04-20 10:56 -12.94036 -51.63998 36019 ft 490 kts 296°
2026-04-20 10:57 -12.91136 -51.69484 36023 ft 490 kts 296°
2026-04-20 10:57 -12.88553 -51.74368 36019 ft 490 kts 296°
2026-04-20 10:58 -12.85658 -51.79846 36019 ft 490 kts 296°
2026-04-20 10:58 -12.82729 -51.85375 36018 ft 490 kts 296°
2026-04-20 10:59 -12.79755 -51.90988 36006 ft 491 kts 296°
2026-04-20 10:59 -12.76745 -51.96668 35994 ft 491 kts 296°
2026-04-20 11:00 -12.73733 -52.02348 35981 ft 491 kts 296°
2026-04-20 11:00 -12.70766 -52.07940 35969 ft 492 kts 296°
2026-04-20 11:01 -12.67844 -52.13440 35965 ft 492 kts 296°
2026-04-20 11:01 -12.64834 -52.19102 35964 ft 492 kts 296°
2026-04-20 11:02 -12.61797 -52.24813 35965 ft 492 kts 296°
2026-04-20 11:02 -12.58802 -52.30442 35964 ft 492 kts 296°
2026-04-20 11:03 -12.55831 -52.36021 35965 ft 492 kts 296°
2026-04-20 11:03 -12.52925 -52.41476 35964 ft 492 kts 296°
2026-04-20 11:04 -12.49942 -52.47073 35965 ft 492 kts 296°
2026-04-20 11:04 -12.46925 -52.52733 35964 ft 492 kts 296°
2026-04-20 11:05 -12.43915 -52.58371 35964 ft 492 kts 296°
2026-04-20 11:05 -12.40906 -52.64004 35964 ft 492 kts 296°
2026-04-20 11:06 -12.38142 -52.69175 35967 ft 492 kts 296°
2026-04-20 11:06 -12.35154 -52.74764 35967 ft 492 kts 296°
2026-04-20 11:07 -12.32192 -52.80300 35968 ft 492 kts 296°
2026-04-20 11:07 -12.29213 -52.85865 35967 ft 492 kts 296°
2026-04-20 11:08 -12.26233 -52.91428 35967 ft 491 kts 296°
2026-04-20 11:08 -12.23412 -52.96691 35966 ft 491 kts 297°
2026-04-20 11:09 -12.20456 -53.02104 35953 ft 492 kts 301°
2026-04-20 11:09 -12.16828 -53.07183 35964 ft 494 kts 304°
2026-04-20 11:10 -12.13437 -53.11793 35962 ft 493 kts 305°
2026-04-20 11:10 -12.09805 -53.16698 35957 ft 493 kts 305°
2026-04-20 11:11 -12.06130 -53.21641 35952 ft 493 kts 305°
2026-04-20 11:11 -12.02452 -53.26580 35945 ft 493 kts 305°
2026-04-20 11:12 -11.98746 -53.31555 35938 ft 494 kts 306°
2026-04-20 11:12 -11.94906 -53.36703 35939 ft 494 kts 306°
2026-04-20 11:13 -11.91113 -53.41782 35939 ft 494 kts 306°
2026-04-20 11:13 -11.87371 -53.46793 35937 ft 494 kts 306°
2026-04-20 11:14 -11.83705 -53.51697 35936 ft 493 kts 306°
2026-04-20 11:14 -11.79914 -53.56768 35936 ft 493 kts 306°
2026-04-20 11:15 -11.76269 -53.61642 35936 ft 493 kts 306°
2026-04-20 11:15 -11.72582 -53.66569 35938 ft 493 kts 306°
2026-04-20 11:16 -11.68817 -53.71598 35939 ft 493 kts 306°
2026-04-20 11:16 -11.65232 -53.76384 35939 ft 493 kts 306°
2026-04-20 11:17 -11.61498 -53.81368 35939 ft 494 kts 306°
2026-04-20 11:17 -11.57741 -53.86379 35939 ft 494 kts 306°
2026-04-20 11:18 -11.53996 -53.91369 35938 ft 494 kts 306°
2026-04-20 11:18 -11.50259 -53.96349 35938 ft 494 kts 306°
2026-04-20 11:19 -11.46610 -54.01209 35939 ft 494 kts 306°
2026-04-20 11:19 -11.43143 -54.05826 35938 ft 494 kts 306°
2026-04-20 11:20 -11.39408 -54.10796 35939 ft 494 kts 306°
2026-04-20 11:20 -11.35852 -54.15523 35938 ft 494 kts 306°
2026-04-20 11:21 -11.32182 -54.20403 35938 ft 495 kts 306°
2026-04-20 11:21 -11.28488 -54.25309 35938 ft 495 kts 306°
2026-04-20 11:22 -11.24983 -54.29965 35938 ft 495 kts 306°
2026-04-20 11:22 -11.21263 -54.34902 35938 ft 495 kts 306°
2026-04-20 11:23 -11.17529 -54.39857 35938 ft 495 kts 306°
2026-04-20 11:23 -11.13786 -54.44821 35938 ft 495 kts 307°
2026-04-20 11:24 -11.10087 -54.49722 35938 ft 496 kts 307°
2026-04-20 11:24 -11.06389 -54.54624 35938 ft 496 kts 307°
2026-04-20 11:25 -11.02603 -54.59636 35938 ft 496 kts 307°
2026-04-20 11:25 -10.98755 -54.64732 35939 ft 496 kts 307°
2026-04-20 11:26 -10.95057 -54.69621 35938 ft 496 kts 307°
2026-04-20 11:26 -10.91335 -54.74543 35939 ft 497 kts 307°
2026-04-20 11:27 -10.87773 -54.79252 35939 ft 496 kts 307°
2026-04-20 11:27 -10.84232 -54.83930 35938 ft 496 kts 307°
2026-04-20 11:28 -10.80471 -54.88896 35938 ft 497 kts 307°
2026-04-20 11:28 -10.76731 -54.93797 36025 ft 496 kts 307°
2026-04-20 11:29 -10.72921 -54.98774 36018 ft 497 kts 307°
2026-04-20 11:29 -10.69193 -55.03635 36012 ft 497 kts 307°
2026-04-20 11:30 -10.65571 -55.08358 36007 ft 497 kts 307°
2026-04-20 11:30 -10.61763 -55.13320 36002 ft 497 kts 308°
2026-04-20 11:31 -10.57945 -55.18294 35996 ft 497 kts 308°
2026-04-20 11:31 -10.54091 -55.23312 35993 ft 498 kts 308°
2026-04-20 11:32 -10.50267 -55.28288 35993 ft 498 kts 308°
2026-04-20 11:32 -10.46500 -55.33187 35993 ft 498 kts 308°
2026-04-20 11:33 -10.42766 -55.38044 35994 ft 498 kts 308°
2026-04-20 11:33 -10.38901 -55.43066 35992 ft 498 kts 308°
2026-04-20 11:34 -10.35029 -55.48097 35993 ft 499 kts 308°
2026-04-20 11:34 -10.31200 -55.53070 35994 ft 499 kts 308°
2026-04-20 11:35 -10.27338 -55.58081 35993 ft 499 kts 308°
2026-04-20 11:35 -10.23641 -55.62876 35993 ft 499 kts 308°
2026-04-20 11:36 -10.19827 -55.67824 35992 ft 500 kts 308°
2026-04-20 11:36 -10.15932 -55.72871 35992 ft 500 kts 308°
2026-04-20 11:37 -10.12060 -55.77890 35991 ft 500 kts 308°
2026-04-20 11:37 -10.06260 -55.85407 35992 ft 500 kts 308°
2026-04-20 11:38 -10.02547 -55.90216 35992 ft 500 kts 308°
2026-04-20 11:38 -9.98661 -55.95246 35990 ft 500 kts 308°
2026-04-20 11:39 -9.94797 -56.00247 35985 ft 500 kts 308°
2026-04-20 11:39 -9.90938 -56.05238 35979 ft 500 kts 308°
2026-04-20 11:40 -9.87109 -56.10208 35975 ft 500 kts 307°
2026-04-20 11:40 -9.83581 -56.15014 35969 ft 500 kts 307°
2026-04-20 11:41 -9.79810 -56.20166 35966 ft 501 kts 307°
2026-04-20 11:41 -9.76013 -56.25357 35966 ft 501 kts 307°
2026-04-20 11:42 -9.72290 -56.30445 35966 ft 501 kts 307°
2026-04-20 11:42 -9.68558 -56.35542 35966 ft 501 kts 307°
2026-04-20 11:43 -9.64830 -56.40631 35966 ft 501 kts 307°
2026-04-20 11:43 -9.61169 -56.45627 35966 ft 501 kts 307°
2026-04-20 11:44 -9.57562 -56.50547 35966 ft 502 kts 307°
2026-04-20 11:44 -9.53856 -56.55602 35966 ft 502 kts 307°
2026-04-20 11:45 -9.50085 -56.60741 35966 ft 502 kts 307°
2026-04-20 11:45 -9.46340 -56.65844 35966 ft 502 kts 307°
2026-04-20 11:46 -9.42670 -56.70842 35965 ft 502 kts 307°
2026-04-20 11:46 -9.38859 -56.76029 35965 ft 502 kts 307°
2026-04-20 11:47 -9.35033 -56.81236 35965 ft 502 kts 307°
2026-04-20 11:47 -9.31205 -56.86442 35964 ft 503 kts 307°
2026-04-20 11:48 -9.27376 -56.91648 35966 ft 504 kts 307°
2026-04-20 11:48 -9.23587 -56.96798 35965 ft 504 kts 307°
2026-04-20 11:49 -9.19854 -57.01870 35966 ft 504 kts 307°
2026-04-20 11:49 -9.16015 -57.07083 35966 ft 504 kts 307°
2026-04-20 11:50 -9.12124 -57.12365 35966 ft 505 kts 307°
2026-04-20 11:50 -9.08218 -57.17664 35966 ft 505 kts 307°
2026-04-20 11:51 -9.04333 -57.22933 35966 ft 505 kts 307°
2026-04-20 11:51 -9.00609 -57.27981 35966 ft 505 kts 307°
2026-04-20 11:52 -8.96731 -57.33238 35967 ft 505 kts 307°
2026-04-20 11:52 -8.92781 -57.38589 35965 ft 505 kts 307°
2026-04-20 11:53 -8.88873 -57.43881 35966 ft 506 kts 307°
2026-04-20 11:53 -8.84940 -57.49203 35965 ft 506 kts 307°
2026-04-20 11:54 -8.81057 -57.54457 35966 ft 507 kts 307°
2026-04-20 11:54 -8.77215 -57.59652 35967 ft 507 kts 307°
2026-04-20 11:55 -8.73267 -57.64989 35967 ft 507 kts 307°
2026-04-20 11:55 -8.69349 -57.70285 35965 ft 508 kts 307°
2026-04-20 11:56 -8.65385 -57.75640 35964 ft 508 kts 307°
2026-04-20 11:56 -8.61441 -57.80964 35964 ft 508 kts 307°
2026-04-20 11:57 -8.57668 -57.86057 35965 ft 509 kts 307°
2026-04-20 11:57 -8.53798 -57.91279 35965 ft 509 kts 307°
2026-04-20 11:58 -8.49843 -57.96610 35965 ft 510 kts 307°
2026-04-20 11:58 -8.45887 -58.01943 35967 ft 510 kts 307°
2026-04-20 11:59 -8.41918 -58.07291 35966 ft 509 kts 307°
2026-04-20 11:59 -8.38112 -58.12418 35965 ft 510 kts 307°
2026-04-20 12:00 -8.34172 -58.17725 35967 ft 510 kts 307°
2026-04-20 12:00 -8.30200 -58.23070 35966 ft 510 kts 307°
2026-04-20 12:01 -8.26343 -58.28260 35967 ft 510 kts 307°
2026-04-20 12:01 -8.22350 -58.33630 35967 ft 510 kts 307°
2026-04-20 12:02 -8.18377 -58.38971 35967 ft 510 kts 307°
2026-04-20 12:02 -8.14554 -58.44110 35968 ft 510 kts 307°
2026-04-20 12:03 -8.10533 -58.49510 35966 ft 509 kts 307°
2026-04-20 12:03 -8.06503 -58.54923 35968 ft 509 kts 307°
2026-04-20 12:04 -8.02499 -58.60299 35968 ft 509 kts 307°
2026-04-20 12:04 -7.98600 -58.65532 35967 ft 510 kts 307°
2026-04-20 12:05 -7.94770 -58.70668 35965 ft 511 kts 307°
2026-04-20 12:05 -7.90762 -58.76043 35965 ft 511 kts 307°
2026-04-20 12:06 -7.86805 -58.81346 35963 ft 510 kts 307°
2026-04-20 12:06 -7.82649 -58.86916 35965 ft 509 kts 307°
2026-04-20 12:07 -7.78703 -58.92202 35965 ft 510 kts 307°
2026-04-20 12:07 -7.74792 -58.97440 35965 ft 510 kts 307°
2026-04-20 12:08 -7.70907 -59.02639 35965 ft 510 kts 307°
2026-04-20 12:08 -7.66922 -59.07971 35965 ft 510 kts 307°
2026-04-20 12:09 -7.63091 -59.13101 35967 ft 508 kts 307°
2026-04-20 12:09 -7.59239 -59.18250 35966 ft 508 kts 307°
2026-04-20 12:10 -7.55554 -59.23174 35966 ft 507 kts 307°
2026-04-20 12:10 -7.51970 -59.27964 35967 ft 507 kts 307°
2026-04-20 12:11 -7.48086 -59.33152 35965 ft 508 kts 307°
2026-04-20 12:11 -7.44060 -59.38530 35967 ft 509 kts 307°
2026-04-20 12:12 -7.40066 -59.43861 35967 ft 508 kts 307°
2026-04-20 12:12 -7.36279 -59.48915 35967 ft 508 kts 307°
2026-04-20 12:13 -7.32463 -59.54006 35967 ft 508 kts 307°
2026-04-20 12:13 -7.28718 -59.59002 35968 ft 508 kts 307°
2026-04-20 12:14 -7.24729 -59.64319 35968 ft 508 kts 307°
2026-04-20 12:14 -7.20808 -59.69553 35965 ft 508 kts 307°
2026-04-20 12:15 -7.16795 -59.74909 35965 ft 508 kts 307°
2026-04-20 12:15 -7.12845 -59.80180 35965 ft 508 kts 307°
2026-04-20 12:16 -7.09009 -59.85297 35966 ft 510 kts 307°
2026-04-20 12:16 -7.05013 -59.90625 35965 ft 509 kts 307°
2026-04-20 12:17 -7.01155 -59.95769 35965 ft 509 kts 307°
2026-04-20 12:17 -6.97268 -60.00949 35966 ft 509 kts 307°
2026-04-20 12:18 -6.93357 -60.06159 35965 ft 510 kts 307°
2026-04-20 12:18 -6.89553 -60.11227 35967 ft 511 kts 307°
2026-04-20 12:19 -6.85804 -60.16217 35966 ft 510 kts 307°
2026-04-20 12:19 -6.81878 -60.21442 35966 ft 510 kts 307°
2026-04-20 12:20 -6.77980 -60.26629 35967 ft 510 kts 307°
2026-04-20 12:20 -6.74410 -60.31378 35967 ft 510 kts 307°
2026-04-20 12:21 -6.70532 -60.36535 35967 ft 510 kts 307°
2026-04-20 12:21 -6.66587 -60.41782 35968 ft 511 kts 307°
2026-04-20 12:22 -6.62871 -60.46719 35967 ft 511 kts 307°
2026-04-20 12:22 -6.59150 -60.51664 35967 ft 511 kts 307°
2026-04-20 12:23 -6.55019 -60.57150 35968 ft 511 kts 307°
2026-04-20 12:23 -6.50910 -60.62608 35968 ft 511 kts 307°
2026-04-20 12:24 -6.46998 -60.67800 35963 ft 510 kts 307°
2026-04-20 12:24 -6.43290 -60.72722 35964 ft 510 kts 307°
2026-04-20 12:25 -6.39430 -60.77843 35965 ft 510 kts 307°
2026-04-20 12:25 -6.35540 -60.83002 35966 ft 510 kts 307°
2026-04-20 12:26 -6.31630 -60.88190 35966 ft 510 kts 307°
2026-04-20 12:26 -6.27756 -60.93377 35966 ft 510 kts 307°
2026-04-20 12:27 -6.23906 -60.98536 35966 ft 510 kts 307°
2026-04-20 12:27 -6.20241 -61.03448 35966 ft 509 kts 307°
2026-04-20 12:28 -6.16363 -61.08644 35966 ft 509 kts 307°
2026-04-20 12:28 -6.12490 -61.13831 35966 ft 510 kts 307°
2026-04-20 12:29 -6.08786 -61.18790 35967 ft 510 kts 307°
2026-04-20 12:29 -6.05084 -61.23746 35967 ft 509 kts 307°
2026-04-20 12:30 -6.01246 -61.28854 35966 ft 508 kts 307°
2026-04-20 12:30 -5.97440 -61.33858 35968 ft 510 kts 307°
2026-04-20 12:31 -5.93466 -61.39076 35967 ft 510 kts 307°
2026-04-20 12:31 -5.89550 -61.44216 35967 ft 510 kts 307°
2026-04-20 12:32 -5.85582 -61.49421 35967 ft 510 kts 307°
2026-04-20 12:32 -5.81623 -61.54613 35967 ft 509 kts 307°
2026-04-20 12:33 -5.77835 -61.59580 35967 ft 509 kts 307°
2026-04-20 12:33 -5.73817 -61.64847 35967 ft 509 kts 307°
2026-04-20 12:34 -5.69891 -61.69993 35964 ft 509 kts 307°
2026-04-20 12:34 -5.65829 -61.75316 35965 ft 509 kts 307°
2026-04-20 12:35 -5.61701 -61.80723 35965 ft 509 kts 307°
2026-04-20 12:35 -5.57629 -61.86083 35965 ft 509 kts 307°
2026-04-20 12:36 -5.53677 -61.91296 35965 ft 509 kts 307°
2026-04-20 12:36 -5.49631 -61.96630 35965 ft 509 kts 307°
2026-04-20 12:37 -5.45671 -62.01851 35964 ft 509 kts 307°
2026-04-20 12:37 -5.41703 -62.07081 35966 ft 510 kts 307°
2026-04-20 12:38 -5.37718 -62.12331 35965 ft 510 kts 307°
2026-04-20 12:38 -5.33835 -62.17447 35966 ft 511 kts 307°
2026-04-20 12:39 -5.27971 -62.25170 35965 ft 511 kts 307°
2026-04-20 12:40 -5.23965 -62.30444 35966 ft 512 kts 307°
2026-04-20 12:40 -5.20089 -62.35548 35967 ft 511 kts 307°
2026-04-20 12:41 -5.16074 -62.40830 35968 ft 512 kts 307°
2026-04-20 12:41 -5.12072 -62.46090 35968 ft 512 kts 308°
2026-04-20 12:42 -5.08204 -62.51137 35968 ft 512 kts 308°
2026-04-20 12:42 -5.04181 -62.56383 35969 ft 513 kts 308°
2026-04-20 12:43 -5.00210 -62.61561 35969 ft 513 kts 308°
2026-04-20 12:43 -4.96144 -62.66859 35965 ft 513 kts 308°
2026-04-20 12:44 -4.92056 -62.72184 35964 ft 514 kts 308°
2026-04-20 12:44 -4.88077 -62.77366 35964 ft 514 kts 308°
2026-04-20 12:45 -4.84112 -62.82530 35964 ft 514 kts 308°
2026-04-20 12:45 -4.80038 -62.87835 35964 ft 514 kts 308°
2026-04-20 12:46 -4.75933 -62.93178 35961 ft 515 kts 308°
2026-04-20 12:46 -4.71792 -62.98568 35955 ft 515 kts 308°
2026-04-20 12:47 -4.67708 -63.03880 35949 ft 515 kts 308°
2026-04-20 12:47 -4.63706 -63.09118 35944 ft 515 kts 308°
2026-04-20 12:48 -4.59637 -63.14463 35940 ft 516 kts 308°
2026-04-20 12:48 -4.55483 -63.19920 35939 ft 516 kts 308°
2026-04-20 12:49 -4.51919 -63.24604 35940 ft 516 kts 308°
2026-04-20 12:49 -4.48637 -63.28915 35940 ft 516 kts 308°
2026-04-20 12:50 -4.44578 -63.34247 35941 ft 517 kts 308°
2026-04-20 12:50 -4.39886 -63.40408 35941 ft 517 kts 308°
2026-04-20 12:51 -4.34234 -63.47828 35941 ft 517 kts 308°
2026-04-20 12:51 -4.30201 -63.53121 35943 ft 518 kts 308°
2026-04-20 12:52 -4.26030 -63.58594 35942 ft 518 kts 308°
2026-04-20 12:52 -4.21998 -63.63884 35942 ft 518 kts 308°
2026-04-20 12:53 -4.17937 -63.69210 35937 ft 518 kts 308°
2026-04-20 12:53 -4.13793 -63.74645 35939 ft 519 kts 308°
2026-04-20 12:54 -4.09766 -63.79924 35938 ft 519 kts 308°
2026-04-20 12:54 -4.05601 -63.85384 35938 ft 519 kts 308°
2026-04-20 12:55 -4.01407 -63.90881 35939 ft 519 kts 308°
2026-04-20 12:55 -3.97264 -63.96310 35939 ft 519 kts 308°
2026-04-20 12:56 -3.93091 -64.01778 35940 ft 519 kts 308°
2026-04-20 12:56 -3.89064 -64.07053 35938 ft 519 kts 308°
2026-04-20 12:57 -3.85007 -64.12366 35938 ft 519 kts 308°
2026-04-20 12:57 -3.80841 -64.17822 35939 ft 519 kts 308°
2026-04-20 12:58 -3.76732 -64.23202 35939 ft 519 kts 308°
2026-04-20 12:58 -3.72571 -64.28648 35939 ft 519 kts 308°
2026-04-20 12:59 -3.68440 -64.34056 35940 ft 519 kts 308°
2026-04-20 12:59 -3.64607 -64.39070 35941 ft 519 kts 308°
2026-04-20 13:00 -3.60526 -64.44410 35941 ft 519 kts 308°
2026-04-20 13:00 -3.56385 -64.49827 35941 ft 519 kts 308°
2026-04-20 13:01 -3.52273 -64.55205 35942 ft 519 kts 308°
2026-04-20 13:01 -3.48139 -64.60612 35942 ft 519 kts 308°
2026-04-20 13:02 -3.44048 -64.65961 35940 ft 519 kts 308°
2026-04-20 13:02 -3.40045 -64.71254 35933 ft 519 kts 303°
2026-04-20 13:02 -3.38530 -64.74289 35984 ft 519 kts 292°
2026-04-20 13:03 -3.37199 -64.77493 35934 ft 521 kts 292°
2026-04-20 13:03 -3.34651 -64.83959 35937 ft 520 kts 291°
2026-04-20 13:04 -3.32165 -64.90442 35938 ft 520 kts 290°
2026-04-20 13:04 -3.29705 -64.96922 35939 ft 520 kts 290°
2026-04-20 13:05 -3.27251 -65.03407 35938 ft 521 kts 290°
2026-04-20 13:05 -3.24901 -65.09621 35939 ft 521 kts 290°
2026-04-20 13:06 -3.22430 -65.16152 35939 ft 521 kts 290°
2026-04-20 13:06 -3.19954 -65.22704 35940 ft 521 kts 290°
2026-04-20 13:07 -3.17493 -65.29211 35941 ft 521 kts 290°
2026-04-20 13:07 -3.15031 -65.35717 35941 ft 521 kts 290°
2026-04-20 13:08 -3.12591 -65.42167 35941 ft 522 kts 290°
2026-04-20 13:08 -3.10206 -65.48471 35942 ft 522 kts 290°
2026-04-20 13:09 -3.07751 -65.54957 35942 ft 522 kts 290°
2026-04-20 13:09 -3.05330 -65.61350 35943 ft 522 kts 290°
2026-04-20 13:10 -3.02936 -65.67675 35937 ft 522 kts 290°
2026-04-20 13:10 -3.00549 -65.73975 35938 ft 522 kts 290°
2026-04-20 13:11 -2.97979 -65.80260 35890 ft 522 kts 301°
2026-04-20 13:11 -2.93794 -65.85568 35933 ft 522 kts 311°
2026-04-20 13:12 -2.89234 -65.90763 35937 ft 521 kts 313°
2026-04-20 13:12 -2.84574 -65.95952 35937 ft 521 kts 313°
2026-04-20 13:13 -2.79902 -66.01112 35938 ft 521 kts 313°
2026-04-20 13:13 -2.75331 -66.06148 35939 ft 522 kts 313°
2026-04-20 13:14 -2.70786 -66.11149 35938 ft 522 kts 313°
2026-04-20 13:14 -2.66169 -66.16228 35939 ft 522 kts 313°
2026-04-20 13:15 -2.61429 -66.21441 35940 ft 522 kts 313°
2026-04-20 13:15 -2.56705 -66.26636 35940 ft 522 kts 313°
2026-04-20 13:16 -2.51997 -66.31812 35941 ft 522 kts 313°
2026-04-20 13:16 -2.47288 -66.36988 35941 ft 522 kts 313°
2026-04-20 13:17 -2.42751 -66.41976 35941 ft 522 kts 313°
2026-04-20 13:17 -2.37993 -66.47206 35942 ft 522 kts 313°
2026-04-20 13:18 -2.33186 -66.52489 35942 ft 522 kts 313°
2026-04-20 13:18 -2.28378 -66.57772 35943 ft 522 kts 313°
2026-04-20 13:19 -2.23621 -66.62999 35943 ft 522 kts 313°
2026-04-20 13:19 -2.19337 -66.67706 35936 ft 522 kts 313°
2026-04-20 13:20 -2.14930 -66.72546 35937 ft 522 kts 313°
2026-04-20 13:20 -2.10132 -66.77816 35938 ft 522 kts 313°
2026-04-20 13:21 -2.05424 -66.82987 35938 ft 522 kts 313°
2026-04-20 13:21 -2.00666 -66.88213 35939 ft 522 kts 313°
2026-04-20 13:22 -1.95849 -66.93501 35940 ft 522 kts 313°
2026-04-20 13:22 -1.91038 -66.98783 35938 ft 522 kts 313°
2026-04-20 13:23 -1.86545 -67.03717 35926 ft 522 kts 313°
2026-04-20 13:23 -1.81707 -67.09028 35917 ft 521 kts 313°
2026-04-20 13:24 -1.76833 -67.14379 35913 ft 521 kts 313°
2026-04-20 13:24 -1.72176 -67.19490 35912 ft 521 kts 313°
2026-04-20 13:25 -1.67340 -67.24798 35913 ft 521 kts 313°
2026-04-20 13:25 -1.62606 -67.29993 35912 ft 520 kts 313°
2026-04-20 13:26 -1.57852 -67.35210 35914 ft 520 kts 313°
2026-04-20 13:26 -1.52999 -67.40536 35914 ft 521 kts 313°
2026-04-20 13:27 -1.48120 -67.45889 35915 ft 521 kts 313°
2026-04-20 13:27 -1.43250 -67.51233 35915 ft 521 kts 313°
2026-04-20 13:28 -1.38420 -67.56532 35915 ft 521 kts 313°
2026-04-20 13:28 -1.33842 -67.61554 35916 ft 521 kts 313°
2026-04-20 13:29 -1.29068 -67.66790 35910 ft 521 kts 313°
2026-04-20 13:29 -1.24254 -67.72070 35910 ft 521 kts 313°
2026-04-20 13:30 -1.19381 -67.77414 35911 ft 521 kts 313°
2026-04-20 13:30 -1.14566 -67.82696 35911 ft 521 kts 313°
2026-04-20 13:31 -1.09840 -67.87879 35912 ft 521 kts 313°
2026-04-20 13:31 -1.05235 -67.92928 35917 ft 521 kts 313°
2026-04-20 13:32 -1.00403 -67.98227 35939 ft 521 kts 313°
2026-04-20 13:32 -0.95517 -68.03582 35941 ft 521 kts 313°
2026-04-20 13:33 -0.90624 -68.08949 35941 ft 521 kts 313°
2026-04-20 13:33 -0.85862 -68.14172 35938 ft 521 kts 313°
2026-04-20 13:34 -0.81081 -68.19412 35940 ft 521 kts 313°
2026-04-20 13:34 -0.76253 -68.24707 35939 ft 521 kts 313°
2026-04-20 13:35 -0.71391 -68.30036 35940 ft 521 kts 313°
2026-04-20 13:35 -0.66514 -68.35383 35940 ft 521 kts 313°
2026-04-20 13:36 -0.61628 -68.40739 35941 ft 521 kts 313°
2026-04-20 13:36 -0.56806 -68.46025 35941 ft 521 kts 313°
2026-04-20 13:37 -0.53026 -68.50168 35941 ft 521 kts 313°
2026-04-20 13:37 -0.50021 -68.53463 35941 ft 521 kts 313°
2026-04-20 13:38 -0.45467 -68.58454 35942 ft 521 kts 313°
2026-04-20 13:38 -0.40572 -68.63820 35943 ft 521 kts 313°
2026-04-20 13:39 -0.35724 -68.69133 35937 ft 521 kts 313°
2026-04-20 13:39 -0.32303 -68.72883 35938 ft 521 kts 313°
2026-04-20 13:40 -0.28124 -68.77464 35938 ft 521 kts 313°
2026-04-20 13:40 -0.23887 -68.82107 35938 ft 521 kts 313°
2026-04-20 13:41 -0.19510 -68.86904 35938 ft 520 kts 313°
2026-04-20 13:41 -0.14908 -68.91949 35939 ft 521 kts 313°
2026-04-20 13:42 -0.10052 -68.97271 35937 ft 521 kts 313°
2026-04-20 13:42 -0.02795 -69.05224 35927 ft 521 kts 313°
2026-04-20 13:43 0.01875 -69.10341 35918 ft 520 kts 313°
2026-04-20 13:43 0.06642 -69.15566 35914 ft 520 kts 312°
2026-04-20 13:44 0.11458 -69.20846 35911 ft 520 kts 312°
2026-04-20 13:44 0.16267 -69.26117 35911 ft 520 kts 312°
2026-04-20 13:45 0.21085 -69.31397 35912 ft 520 kts 312°
2026-04-20 13:45 0.25854 -69.36624 35912 ft 520 kts 312°
2026-04-20 13:46 0.30517 -69.41736 35913 ft 520 kts 312°
2026-04-20 13:46 0.35319 -69.46998 35915 ft 519 kts 312°
2026-04-20 13:47 0.40217 -69.52367 35914 ft 519 kts 312°
2026-04-20 13:47 0.45074 -69.57691 35914 ft 519 kts 312°
2026-04-20 13:48 0.49907 -69.62989 35914 ft 519 kts 312°
2026-04-20 13:48 0.54513 -69.68038 35910 ft 519 kts 312°
2026-04-20 13:49 0.59103 -69.73069 35910 ft 519 kts 312°
2026-04-20 13:49 0.63920 -69.78349 35911 ft 519 kts 312°
2026-04-20 13:50 0.68721 -69.83613 35911 ft 519 kts 312°
2026-04-20 13:50 0.73486 -69.88837 35911 ft 518 kts 312°
2026-04-20 13:51 0.78245 -69.94055 35911 ft 519 kts 312°
2026-04-20 13:51 0.82830 -69.99080 35912 ft 518 kts 312°
2026-04-20 13:52 0.87650 -70.04363 35912 ft 517 kts 312°
2026-04-20 13:52 0.92454 -70.09631 35914 ft 516 kts 312°
2026-04-20 13:53 0.97275 -70.14918 35914 ft 516 kts 312°
2026-04-20 13:53 1.02048 -70.20153 35915 ft 516 kts 312°
2026-04-20 13:54 1.06629 -70.25176 35914 ft 516 kts 312°
2026-04-20 13:54 1.10635 -70.29569 35914 ft 515 kts 312°
2026-04-20 13:55 1.15430 -70.34828 35912 ft 515 kts 312°
2026-04-20 13:55 1.20274 -70.40140 35912 ft 515 kts 312°
2026-04-20 13:56 1.25087 -70.45418 35913 ft 515 kts 312°
2026-04-20 13:56 1.29874 -70.50670 35912 ft 515 kts 312°
2026-04-20 13:57 1.34533 -70.55781 35913 ft 515 kts 312°
2026-04-20 13:57 1.39200 -70.60900 35913 ft 515 kts 312°
2026-04-20 13:58 1.43970 -70.66134 35912 ft 515 kts 312°
2026-04-20 13:58 1.48684 -70.71306 35910 ft 515 kts 312°
2026-04-20 13:59 1.53487 -70.76575 35911 ft 515 kts 312°
2026-04-20 13:59 1.58249 -70.81801 35911 ft 515 kts 312°
2026-04-20 14:00 1.62786 -70.86780 35917 ft 514 kts 312°
2026-04-20 14:00 1.67566 -70.92027 35922 ft 513 kts 312°
2026-04-20 14:01 1.72651 -70.97607 35930 ft 512 kts 311°
2026-04-20 14:01 1.77901 -71.03370 35937 ft 512 kts 311°
2026-04-20 14:02 1.83057 -71.09029 35940 ft 512 kts 311°
2026-04-20 14:02 1.87996 -71.14452 35940 ft 512 kts 311°
2026-04-20 14:03 1.93063 -71.20015 35941 ft 512 kts 311°
2026-04-20 14:03 1.98225 -71.25684 35942 ft 512 kts 311°
2026-04-20 14:04 2.03399 -71.31364 35940 ft 510 kts 311°
2026-04-20 14:04 2.08506 -71.36974 35941 ft 510 kts 311°
2026-04-20 14:05 2.13136 -71.42061 35938 ft 511 kts 311°
2026-04-20 14:05 2.17592 -71.46955 35939 ft 511 kts 311°
2026-04-20 14:06 2.22200 -71.52016 35939 ft 511 kts 311°
2026-04-20 14:06 2.27256 -71.57571 35944 ft 511 kts 311°
2026-04-20 14:07 2.32285 -71.63099 35951 ft 510 kts 311°
2026-04-20 14:07 2.36914 -71.68186 35956 ft 510 kts 311°
2026-04-20 14:08 2.41376 -71.73090 35964 ft 510 kts 311°
2026-04-20 14:08 2.45982 -71.78153 35964 ft 511 kts 311°
2026-04-20 14:09 2.50882 -71.83540 35965 ft 510 kts 311°
2026-04-20 14:09 2.55949 -71.89111 35965 ft 510 kts 311°
2026-04-20 14:10 2.60913 -71.94568 35966 ft 510 kts 311°
2026-04-20 14:10 2.65820 -71.99964 35966 ft 510 kts 311°
2026-04-20 14:11 2.70685 -72.05314 35965 ft 509 kts 311°
2026-04-20 14:11 2.75664 -72.10791 35966 ft 509 kts 311°
2026-04-20 14:12 2.80755 -72.16393 35967 ft 510 kts 311°
2026-04-20 14:12 2.85774 -72.21915 35967 ft 510 kts 311°
2026-04-20 14:13 2.90750 -72.27392 35968 ft 509 kts 311°
2026-04-20 14:13 2.95479 -72.32597 35968 ft 508 kts 311°
2026-04-20 14:14 3.00355 -72.37964 35968 ft 508 kts 311°
2026-04-20 14:14 3.05326 -72.43437 35968 ft 508 kts 311°
2026-04-20 14:15 3.10280 -72.48892 35969 ft 508 kts 311°
2026-04-20 14:15 3.14741 -72.53896 35968 ft 507 kts 308°
2026-04-20 14:16 3.19016 -72.59041 35966 ft 507 kts 308°
2026-04-20 14:16 3.23260 -72.64164 35965 ft 507 kts 308°
2026-04-20 14:17 3.26877 -72.68536 35964 ft 507 kts 308°
2026-04-20 14:17 3.31130 -72.73679 35964 ft 507 kts 308°
2026-04-20 14:18 3.35374 -72.78813 35965 ft 507 kts 308°
2026-04-20 14:18 3.39929 -72.84323 35966 ft 508 kts 308°
2026-04-20 14:19 3.44162 -72.89447 35965 ft 508 kts 308°
2026-04-20 14:19 3.48176 -72.94305 35965 ft 507 kts 308°
2026-04-20 14:20 3.52481 -72.99516 35967 ft 507 kts 308°
2026-04-20 14:20 3.56821 -73.04771 35978 ft 507 kts 308°
2026-04-20 14:21 3.61181 -73.10050 35986 ft 507 kts 308°
2026-04-20 14:21 3.65434 -73.15201 35994 ft 506 kts 308°
2026-04-20 14:22 3.69572 -73.20214 36018 ft 506 kts 308°
2026-04-20 14:22 3.73545 -73.25027 36020 ft 506 kts 308°
2026-04-20 14:23 3.77656 -73.30007 36021 ft 507 kts 308°
2026-04-20 14:23 3.81772 -73.34995 36022 ft 506 kts 308°
2026-04-20 14:24 3.85867 -73.39958 36022 ft 507 kts 308°
2026-04-20 14:24 3.89906 -73.44856 36022 ft 507 kts 308°
2026-04-20 14:25 3.93913 -73.49714 36022 ft 507 kts 308°
2026-04-20 14:25 3.97161 -73.53654 36022 ft 507 kts 308°
2026-04-20 14:26 4.00214 -73.57357 36022 ft 507 kts 308°
2026-04-20 14:26 4.04134 -73.62111 36022 ft 506 kts 308°
2026-04-20 14:27 4.07910 -73.66693 36022 ft 506 kts 308°
2026-04-20 14:27 4.11342 -73.70856 36018 ft 506 kts 307°
2026-04-20 14:28 4.14899 -73.75173 36018 ft 506 kts 307°
2026-04-20 14:28 4.18426 -73.79454 36024 ft 506 kts 307°
2026-04-20 14:29 4.21723 -73.83455 36041 ft 507 kts 307°
2026-04-20 14:29 4.25456 -73.87989 36061 ft 506 kts 307°
2026-04-20 14:30 4.29222 -73.92562 36079 ft 506 kts 308°
2026-04-20 14:30 4.32934 -73.97071 36106 ft 506 kts 307°
2026-04-20 14:31 4.36266 -74.01118 36117 ft 506 kts 307°
2026-04-20 14:31 4.39628 -74.05202 36126 ft 506 kts 307°
2026-04-20 14:32 4.43174 -74.09512 36136 ft 506 kts 307°
2026-04-20 14:32 4.46714 -74.13814 36146 ft 506 kts 307°
2026-04-20 14:33 4.50351 -74.18234 36155 ft 506 kts 308°
2026-04-20 14:33 4.54124 -74.22823 36154 ft 505 kts 308°
2026-04-20 14:34 4.57956 -74.27482 36155 ft 505 kts 308°
2026-04-20 14:34 4.61796 -74.32195 36156 ft 505 kts 307°
2026-04-20 14:35 4.65676 -74.36999 36156 ft 506 kts 307°
2026-04-20 14:35 4.69486 -74.41723 36156 ft 505 kts 307°
2026-04-20 14:36 4.73197 -74.46323 36156 ft 505 kts 307°
2026-04-20 14:36 4.76943 -74.50968 36156 ft 505 kts 307°
2026-04-20 14:37 4.80667 -74.55588 36156 ft 505 kts 307°
2026-04-20 14:37 4.84346 -74.60154 36156 ft 505 kts 307°
2026-04-20 14:38 4.88276 -74.65031 36156 ft 505 kts 307°
2026-04-20 14:38 4.91749 -74.69558 36162 ft 504 kts 303°
2026-04-20 14:39 4.94924 -74.74010 36157 ft 503 kts 303°
2026-04-20 14:39 4.98096 -74.78471 36157 ft 503 kts 303°
2026-04-20 14:40 5.01677 -74.83517 36157 ft 503 kts 303°
2026-04-20 14:40 5.05270 -74.88585 36157 ft 503 kts 303°
2026-04-20 14:41 5.08970 -74.93804 36200 ft 503 kts 303°
2026-04-20 14:41 5.12425 -74.98681 36245 ft 503 kts 303°
2026-04-20 14:42 5.15894 -75.03578 36294 ft 503 kts 303°
2026-04-20 14:42 5.19267 -75.08341 36343 ft 503 kts 303°
2026-04-20 14:43 5.22799 -75.13331 36392 ft 503 kts 304°
2026-04-20 14:43 5.26534 -75.18605 36397 ft 503 kts 304°
2026-04-20 14:44 5.30172 -75.23745 36391 ft 503 kts 304°
2026-04-20 14:44 5.33904 -75.29019 36373 ft 502 kts 304°
2026-04-20 14:45 5.37608 -75.34256 36355 ft 502 kts 304°
2026-04-20 14:45 5.41277 -75.39444 36336 ft 502 kts 303°
2026-04-20 14:46 5.44844 -75.44488 36318 ft 502 kts 303°
2026-04-20 14:46 5.48558 -75.49743 36316 ft 502 kts 303°
2026-04-20 14:47 5.52306 -75.55046 36317 ft 502 kts 303°
2026-04-20 14:48 5.57904 -75.62971 36317 ft 502 kts 303°
2026-04-20 14:48 5.61467 -75.68015 36317 ft 502 kts 303°
2026-04-20 14:49 5.64960 -75.72963 36318 ft 502 kts 303°
2026-04-20 14:49 5.68305 -75.77701 36318 ft 502 kts 303°
2026-04-20 14:50 5.72112 -75.82842 36311 ft 503 kts 308°
2026-04-20 14:50 5.76349 -75.87956 36281 ft 503 kts 308°
2026-04-20 14:51 5.80587 -75.93055 36207 ft 503 kts 308°
2026-04-20 14:51 5.84847 -75.98178 36133 ft 503 kts 308°
2026-04-20 14:52 5.89182 -76.03390 36057 ft 503 kts 308°
2026-04-20 14:52 5.93355 -76.08408 35986 ft 503 kts 308°
2026-04-20 14:53 5.97743 -76.13685 35990 ft 503 kts 308°
2026-04-20 14:53 6.02198 -76.19045 36013 ft 503 kts 308°
2026-04-20 14:54 6.06728 -76.24496 36036 ft 503 kts 308°
2026-04-20 14:54 6.11102 -76.29762 36046 ft 502 kts 308°
2026-04-20 14:55 6.15272 -76.34782 36045 ft 502 kts 308°
2026-04-20 14:55 6.19336 -76.39676 36045 ft 502 kts 308°
2026-04-20 14:56 6.23744 -76.44987 36046 ft 501 kts 308°
2026-04-20 14:56 6.28335 -76.50519 36045 ft 501 kts 308°
2026-04-20 14:57 6.32910 -76.56033 36046 ft 501 kts 308°
2026-04-20 14:57 6.37490 -76.61555 36046 ft 501 kts 308°
2026-04-20 14:58 6.41911 -76.66888 36047 ft 500 kts 308°
2026-04-20 14:58 6.45954 -76.71767 36046 ft 499 kts 308°
2026-04-20 14:59 6.50167 -76.76850 36047 ft 499 kts 308°
2026-04-20 14:59 6.54564 -76.82157 36044 ft 499 kts 308°
2026-04-20 15:00 6.59191 -76.87747 36026 ft 499 kts 308°
2026-04-20 15:00 6.63817 -76.93333 36007 ft 499 kts 308°
2026-04-20 15:01 6.68329 -76.98786 35989 ft 498 kts 308°
2026-04-20 15:01 6.72787 -77.04174 35971 ft 498 kts 308°
2026-04-20 15:02 6.77429 -77.09786 35966 ft 498 kts 308°
2026-04-20 15:02 6.81980 -77.15290 35966 ft 498 kts 308°
2026-04-20 15:03 6.86585 -77.20863 35966 ft 497 kts 308°
2026-04-20 15:03 6.91172 -77.26415 35966 ft 497 kts 308°
2026-04-20 15:04 6.95731 -77.31933 35967 ft 497 kts 308°
2026-04-20 15:04 6.99962 -77.37058 35967 ft 497 kts 308°
2026-04-20 15:05 7.04586 -77.42660 35967 ft 497 kts 308°
2026-04-20 15:05 7.09200 -77.48252 35973 ft 496 kts 308°
2026-04-20 15:06 7.13386 -77.53326 35978 ft 496 kts 308°
2026-04-20 15:06 7.17622 -77.58461 35985 ft 496 kts 308°
2026-04-20 15:07 7.21804 -77.63533 35991 ft 496 kts 309°
2026-04-20 15:07 7.25848 -77.68443 35992 ft 495 kts 308°
2026-04-20 15:08 7.28166 -77.71256 35992 ft 495 kts 308°
2026-04-20 15:08 7.31321 -77.75085 35993 ft 495 kts 308°
2026-04-20 15:09 7.34846 -77.79367 35993 ft 495 kts 309°
2026-04-20 15:09 7.38581 -77.83907 35993 ft 495 kts 308°
2026-04-20 15:10 7.42347 -77.88508 35992 ft 494 kts 308°
2026-04-20 15:10 7.46240 -77.93268 35993 ft 494 kts 308°
2026-04-20 15:11 7.50176 -77.98081 35993 ft 494 kts 308°
2026-04-20 15:11 7.54444 -78.03306 35992 ft 494 kts 308°
2026-04-20 15:12 7.59019 -78.08905 35992 ft 494 kts 308°
2026-04-20 15:12 7.63540 -78.14439 35992 ft 494 kts 308°
2026-04-20 15:13 7.67948 -78.19840 35993 ft 494 kts 308°
2026-04-20 15:13 7.72364 -78.25250 35993 ft 494 kts 308°
2026-04-20 15:14 7.76734 -78.30608 35992 ft 494 kts 308°
2026-04-20 15:14 7.81207 -78.36093 35992 ft 494 kts 308°
2026-04-20 15:15 7.85773 -78.41695 35992 ft 494 kts 308°
2026-04-20 15:15 7.90333 -78.47290 35993 ft 494 kts 308°
2026-04-20 15:16 7.93409 -78.51067 35992 ft 494 kts 308°
2026-04-20 15:16 7.96878 -78.55327 35993 ft 494 kts 309°
2026-04-20 15:17 8.00099 -78.59285 35993 ft 494 kts 309°
2026-04-20 15:17 8.03867 -78.63916 35992 ft 494 kts 309°
2026-04-20 15:18 8.07784 -78.68728 35993 ft 495 kts 309°
2026-04-20 15:18 8.11461 -78.73248 35992 ft 495 kts 309°
2026-04-20 15:19 8.15479 -78.78192 35992 ft 495 kts 309°
2026-04-20 15:19 8.19492 -78.83128 35992 ft 495 kts 309°
2026-04-20 15:20 8.23595 -78.88178 35992 ft 496 kts 309°
2026-04-20 15:20 8.27581 -78.93086 35993 ft 495 kts 309°
2026-04-20 15:21 8.31823 -78.98310 35992 ft 495 kts 309°
2026-04-20 15:21 8.36142 -79.03631 35992 ft 496 kts 309°
2026-04-20 15:22 8.40393 -79.08870 35987 ft 496 kts 309°
2026-04-20 15:22 8.44626 -79.14090 35979 ft 496 kts 309°
2026-04-20 15:23 8.48473 -79.18835 35970 ft 496 kts 309°
2026-04-20 15:23 8.52013 -79.23202 35966 ft 496 kts 309°
2026-04-20 15:24 8.55420 -79.27409 35965 ft 496 kts 309°
2026-04-20 15:24 8.58963 -79.31783 35966 ft 497 kts 309°
2026-04-20 15:25 8.62624 -79.36306 35965 ft 497 kts 309°
2026-04-20 15:25 8.66202 -79.40726 35966 ft 497 kts 309°
2026-04-20 15:26 8.70115 -79.45562 35966 ft 497 kts 309°
2026-04-20 15:26 8.74456 -79.50929 35966 ft 497 kts 309°
2026-04-20 15:27 8.78592 -79.56191 35965 ft 497 kts 304°
2026-04-20 15:27 8.82168 -79.61740 35967 ft 497 kts 303°
2026-04-20 15:28 8.85774 -79.67422 35965 ft 497 kts 302°
2026-04-20 15:28 8.89232 -79.72902 35966 ft 498 kts 302°
2026-04-20 15:29 8.92726 -79.78448 35965 ft 498 kts 302°
2026-04-20 15:29 8.96171 -79.83914 35965 ft 497 kts 302°
2026-04-20 15:30 8.99824 -79.89729 35970 ft 497 kts 302°
2026-04-20 15:30 9.03001 -79.94786 35976 ft 498 kts 302°
2026-04-20 15:31 9.06303 -80.00043 35980 ft 498 kts 302°
2026-04-20 15:31 9.10209 -80.06270 35979 ft 499 kts 302°
2026-04-20 15:32 9.13858 -80.12081 35972 ft 499 kts 302°
2026-04-20 15:32 9.17504 -80.17891 35966 ft 499 kts 302°
2026-04-20 15:33 9.21259 -80.23880 35966 ft 498 kts 302°
2026-04-20 15:33 9.25090 -80.29993 35967 ft 499 kts 303°
2026-04-20 15:34 9.29091 -80.36380 35966 ft 499 kts 303°
2026-04-20 15:34 9.33076 -80.42745 35967 ft 499 kts 303°
2026-04-20 15:35 9.37054 -80.49101 35966 ft 499 kts 303°
2026-04-20 15:35 9.41054 -80.55498 35966 ft 499 kts 303°
2026-04-20 15:36 9.44950 -80.61732 35968 ft 500 kts 303°
2026-04-20 15:36 9.48675 -80.67692 35971 ft 499 kts 302°
2026-04-20 15:37 9.52353 -80.73582 35977 ft 499 kts 303°
2026-04-20 15:37 9.56017 -80.79452 35984 ft 499 kts 303°
2026-04-20 15:38 9.60013 -80.85845 35990 ft 499 kts 303°
2026-04-20 15:38 9.64028 -80.92248 35995 ft 499 kts 303°
2026-04-20 15:39 9.67940 -80.98488 36002 ft 499 kts 303°
2026-04-20 15:39 9.71962 -81.04907 36009 ft 499 kts 303°
2026-04-20 15:40 9.76069 -81.11463 36017 ft 499 kts 303°
2026-04-20 15:40 9.80061 -81.17839 36020 ft 499 kts 303°
2026-04-20 15:41 9.84161 -81.24395 36019 ft 499 kts 303°
2026-04-20 15:41 9.88269 -81.30964 36020 ft 499 kts 303°
2026-04-20 15:42 9.92202 -81.37256 36020 ft 499 kts 303°
2026-04-20 15:42 9.96298 -81.43815 36020 ft 498 kts 303°
2026-04-20 15:43 10.00398 -81.50386 36020 ft 499 kts 303°
2026-04-20 15:43 10.04512 -81.56978 36020 ft 498 kts 303°
2026-04-20 15:44 10.08624 -81.63572 36020 ft 498 kts 303°
2026-04-20 15:44 10.12284 -81.69443 36020 ft 499 kts 303°
2026-04-20 15:45 10.15812 -81.75107 36019 ft 498 kts 303°
2026-04-20 15:45 10.19519 -81.81064 36020 ft 499 kts 303°
2026-04-20 15:46 10.23580 -81.87588 36019 ft 499 kts 303°
2026-04-20 15:46 10.27688 -81.94193 36019 ft 499 kts 303°
2026-04-20 15:47 10.31807 -82.00818 36018 ft 498 kts 303°
2026-04-20 15:47 10.35816 -82.07273 36018 ft 498 kts 303°
2026-04-20 15:48 10.39860 -82.13789 36018 ft 498 kts 303°
2026-04-20 15:48 10.43985 -82.20437 36019 ft 498 kts 303°
2026-04-20 15:49 10.48132 -82.27126 36018 ft 498 kts 303°
2026-04-20 15:49 10.52212 -82.33706 36018 ft 498 kts 303°
2026-04-20 15:50 10.56243 -82.40216 36020 ft 498 kts 303°
2026-04-20 15:50 10.60162 -82.46549 36018 ft 498 kts 303°
2026-04-20 15:51 10.64166 -82.53023 36018 ft 498 kts 303°
2026-04-20 15:51 10.68219 -82.59579 36019 ft 498 kts 303°
2026-04-20 15:52 10.72160 -82.65886 36018 ft 498 kts 303°
2026-04-20 15:52 10.75850 -82.71716 36016 ft 498 kts 303°
2026-04-20 15:53 10.81309 -82.80338 36017 ft 498 kts 303°
2026-04-20 15:53 10.85252 -82.86570 36024 ft 498 kts 303°
2026-04-20 15:54 10.89081 -82.92625 36030 ft 498 kts 303°
2026-04-20 15:54 10.92965 -82.98770 36038 ft 498 kts 303°
2026-04-20 15:55 10.96885 -83.04974 36045 ft 498 kts 303°
2026-04-20 15:55 11.00816 -83.11202 36046 ft 498 kts 303°
2026-04-20 15:56 11.04634 -83.17252 36046 ft 497 kts 303°
2026-04-20 15:56 11.08454 -83.23307 36046 ft 497 kts 303°
2026-04-20 15:57 11.12158 -83.29185 36048 ft 497 kts 303°
2026-04-20 15:57 11.15756 -83.34883 36047 ft 497 kts 303°
2026-04-20 15:58 11.19383 -83.40561 36048 ft 497 kts 303°
2026-04-20 15:58 11.23149 -83.46454 36048 ft 497 kts 303°
2026-04-20 15:59 11.26970 -83.52436 36048 ft 497 kts 303°
2026-04-20 15:59 11.30615 -83.58142 36047 ft 496 kts 303°
2026-04-20 16:00 11.34423 -83.64110 36048 ft 496 kts 303°
2026-04-20 16:00 11.37904 -83.69569 36045 ft 496 kts 303°
2026-04-20 16:01 11.41365 -83.74999 36039 ft 496 kts 303°
2026-04-20 16:01 11.44824 -83.80428 36034 ft 496 kts 303°
2026-04-20 16:02 11.48539 -83.86262 36027 ft 496 kts 303°
2026-04-20 16:02 11.52159 -83.91951 36020 ft 496 kts 303°
2026-04-20 16:03 11.55866 -83.97776 36020 ft 496 kts 303°
2026-04-20 16:03 11.59578 -84.03617 36020 ft 495 kts 303°
2026-04-20 16:04 11.63290 -84.09459 36020 ft 495 kts 303°
2026-04-20 16:04 11.66637 -84.14732 36019 ft 495 kts 303°
2026-04-20 16:05 11.70215 -84.20370 36020 ft 495 kts 303°
2026-04-20 16:05 11.73904 -84.26187 36019 ft 495 kts 303°
2026-04-20 16:06 11.77455 -84.31788 36020 ft 495 kts 303°
2026-04-20 16:06 11.81080 -84.37510 36020 ft 495 kts 303°
2026-04-20 16:07 11.84728 -84.43272 36019 ft 495 kts 303°
2026-04-20 16:07 11.88357 -84.49006 36020 ft 495 kts 303°
2026-04-20 16:08 11.91947 -84.54683 36019 ft 495 kts 303°
2026-04-20 16:08 11.95511 -84.60322 36020 ft 495 kts 303°
2026-04-20 16:09 11.98918 -84.65716 36019 ft 495 kts 303°
2026-04-20 16:09 12.02136 -84.70810 36018 ft 494 kts 303°
2026-04-20 16:10 12.05400 -84.75982 36019 ft 494 kts 303°
2026-04-20 16:10 12.08650 -84.81136 36019 ft 494 kts 303°
2026-04-20 16:11 12.11991 -84.86438 36020 ft 494 kts 303°
2026-04-20 16:11 12.15281 -84.91660 36020 ft 493 kts 303°
2026-04-20 16:12 12.18519 -84.96803 36020 ft 493 kts 303°
2026-04-20 16:12 12.21830 -85.02064 36015 ft 493 kts 303°
2026-04-20 16:13 12.25269 -85.07531 36010 ft 493 kts 303°
2026-04-20 16:13 12.28780 -85.13117 36003 ft 493 kts 303°
2026-04-20 16:14 12.32333 -85.18774 35996 ft 493 kts 303°
2026-04-20 16:14 12.35891 -85.24441 35993 ft 493 kts 303°
2026-04-20 16:15 12.39330 -85.29921 35992 ft 493 kts 303°
2026-04-20 16:15 12.42817 -85.35481 35993 ft 493 kts 303°
2026-04-20 16:16 12.46167 -85.40826 35993 ft 493 kts 303°
2026-04-20 16:16 12.49571 -85.46260 35994 ft 493 kts 303°
2026-04-20 16:17 12.52998 -85.51735 36000 ft 493 kts 303°
2026-04-20 16:17 12.56411 -85.57190 36005 ft 492 kts 303°
2026-04-20 16:18 12.59823 -85.62647 36010 ft 492 kts 303°
2026-04-20 16:18 12.62987 -85.67710 36015 ft 492 kts 303°
2026-04-20 16:19 12.65977 -85.72497 36019 ft 492 kts 303°
2026-04-20 16:19 12.68936 -85.77237 36019 ft 492 kts 303°
2026-04-20 16:20 12.72022 -85.82184 36019 ft 492 kts 303°
2026-04-20 16:20 12.75347 -85.87515 36019 ft 492 kts 303°
2026-04-20 16:21 12.78704 -85.92900 36019 ft 492 kts 303°
2026-04-20 16:21 12.82095 -85.98345 36025 ft 492 kts 302°
2026-04-20 16:22 12.85504 -86.03821 36031 ft 493 kts 302°
2026-04-20 16:22 12.88821 -86.09154 36037 ft 493 kts 302°
2026-04-20 16:23 12.92106 -86.14437 36043 ft 492 kts 302°
2026-04-20 16:23 12.95437 -86.19799 36046 ft 492 kts 302°
2026-04-20 16:24 12.98791 -86.25201 36046 ft 492 kts 302°
2026-04-20 16:24 13.02150 -86.30614 36046 ft 492 kts 302°
2026-04-20 16:25 13.05615 -86.36198 36046 ft 493 kts 302°
2026-04-20 16:25 13.09041 -86.41727 36046 ft 492 kts 302°
2026-04-20 16:26 13.12142 -86.46732 36047 ft 492 kts 302°
2026-04-20 16:26 13.15210 -86.51687 36051 ft 492 kts 302°
2026-04-20 16:27 13.18305 -86.56687 36055 ft 492 kts 302°
2026-04-20 16:27 13.21572 -86.61970 36061 ft 492 kts 302°
2026-04-20 16:28 13.24807 -86.67204 36067 ft 492 kts 302°
2026-04-20 16:28 13.27917 -86.72240 36072 ft 492 kts 302°
2026-04-20 16:29 13.31025 -86.77276 36074 ft 492 kts 302°
2026-04-20 16:29 13.34127 -86.82303 36074 ft 492 kts 302°
2026-04-20 16:30 13.37313 -86.87469 36074 ft 492 kts 302°
2026-04-20 16:30 13.40467 -86.92587 36071 ft 492 kts 302°
2026-04-20 16:31 13.43827 -86.98044 36064 ft 492 kts 302°
2026-04-20 16:31 13.47211 -87.03542 36058 ft 492 kts 302°
2026-04-20 16:32 13.50674 -87.09169 36051 ft 492 kts 302°
2026-04-20 16:32 13.54133 -87.14798 36046 ft 492 kts 302°
2026-04-20 16:33 13.57543 -87.20349 36047 ft 492 kts 302°
2026-04-20 16:33 13.60927 -87.25860 36046 ft 492 kts 302°
2026-04-20 16:34 13.64292 -87.31346 36047 ft 492 kts 302°
2026-04-20 16:34 13.67686 -87.36882 36047 ft 491 kts 302°
2026-04-20 16:35 13.71072 -87.42408 36046 ft 491 kts 302°
2026-04-20 16:35 13.74493 -87.47995 36046 ft 491 kts 302°
2026-04-20 16:36 13.77781 -87.53368 36052 ft 491 kts 302°
2026-04-20 16:36 13.81164 -87.58900 36074 ft 491 kts 302°
2026-04-20 16:37 13.84486 -87.64336 36096 ft 490 kts 302°
2026-04-20 16:37 13.87580 -87.69402 36118 ft 490 kts 302°
2026-04-20 16:38 13.90754 -87.74600 36139 ft 490 kts 301°
2026-04-20 16:38 13.93926 -87.79801 36154 ft 490 kts 302°
2026-04-20 16:39 13.97278 -87.85301 36155 ft 490 kts 302°
2026-04-20 16:39 14.00641 -87.90821 36148 ft 490 kts 302°
2026-04-20 16:40 14.04044 -87.96412 36142 ft 490 kts 302°
2026-04-20 16:40 14.07308 -88.01776 36136 ft 490 kts 302°
2026-04-20 16:41 14.10595 -88.07182 36130 ft 490 kts 302°
2026-04-20 16:41 14.13760 -88.12391 36127 ft 490 kts 301°
2026-04-20 16:42 14.16942 -88.17631 36128 ft 490 kts 302°
2026-04-20 16:42 14.20157 -88.22929 36127 ft 489 kts 301°
2026-04-20 16:43 14.23492 -88.28428 36127 ft 489 kts 301°
2026-04-20 16:43 14.26783 -88.33860 36140 ft 489 kts 301°
2026-04-20 16:44 14.29907 -88.39017 36160 ft 489 kts 301°
2026-04-20 16:44 14.33126 -88.44335 36182 ft 489 kts 301°
2026-04-20 16:45 14.36373 -88.49704 36203 ft 489 kts 301°
2026-04-20 16:45 14.39679 -88.55174 36226 ft 489 kts 301°
2026-04-20 16:46 14.43002 -88.60676 36235 ft 489 kts 301°
2026-04-20 16:46 14.46187 -88.65951 36235 ft 488 kts 301°
2026-04-20 16:47 14.49142 -88.70850 36236 ft 488 kts 301°
2026-04-20 16:47 14.52055 -88.75682 36236 ft 488 kts 301°
2026-04-20 16:48 14.54991 -88.80555 36236 ft 488 kts 301°
2026-04-20 16:48 14.58190 -88.85867 36231 ft 488 kts 301°
2026-04-20 16:49 14.61399 -88.91201 36225 ft 488 kts 301°
2026-04-20 16:49 14.64578 -88.96487 36219 ft 488 kts 301°
2026-04-20 16:50 14.67803 -89.01854 36213 ft 488 kts 301°
2026-04-20 16:50 14.70980 -89.07144 36209 ft 488 kts 301°
2026-04-20 16:51 14.74095 -89.12336 36209 ft 488 kts 301°
2026-04-20 16:51 14.77169 -89.17461 36208 ft 488 kts 301°
2026-04-20 16:52 14.80313 -89.22706 36208 ft 488 kts 301°
2026-04-20 16:52 14.83485 -89.28003 36208 ft 488 kts 301°
2026-04-20 16:53 14.86627 -89.33252 36208 ft 488 kts 301°
2026-04-20 16:53 14.89797 -89.38552 36205 ft 488 kts 301°
2026-04-20 16:54 14.92953 -89.43833 36195 ft 488 kts 301°
2026-04-20 16:54 14.96099 -89.49099 36184 ft 487 kts 301°
2026-04-20 16:55 14.99121 -89.54163 36174 ft 487 kts 301°
2026-04-20 16:55 15.02309 -89.59508 36163 ft 487 kts 301°
2026-04-20 16:56 15.05561 -89.64963 36154 ft 487 kts 301°
2026-04-20 16:56 15.08482 -89.69865 36155 ft 486 kts 301°
2026-04-20 16:57 15.11470 -89.74884 36155 ft 486 kts 301°
2026-04-20 16:57 15.14503 -89.79984 36154 ft 487 kts 301°
2026-04-20 16:58 15.16688 -89.83657 36156 ft 486 kts 301°
2026-04-20 16:58 15.19129 -89.87764 36155 ft 486 kts 301°
2026-04-20 16:59 15.22265 -89.93044 36155 ft 486 kts 301°
2026-04-20 16:59 15.25535 -89.98555 36155 ft 486 kts 301°
2026-04-20 17:00 15.30439 -90.06824 36172 ft 486 kts 301°
2026-04-20 17:01 15.33700 -90.12330 36191 ft 486 kts 301°
2026-04-20 17:01 15.36990 -90.17886 36209 ft 486 kts 301°
2026-04-20 17:02 15.40261 -90.23414 36228 ft 486 kts 301°
2026-04-20 17:02 15.43412 -90.28745 36235 ft 486 kts 301°
2026-04-20 17:03 15.46741 -90.34380 36234 ft 485 kts 301°
2026-04-20 17:03 15.50052 -90.39990 36235 ft 485 kts 301°
2026-04-20 17:04 15.53397 -90.45662 36232 ft 485 kts 301°
2026-04-20 17:04 15.56708 -90.51279 36215 ft 486 kts 301°
2026-04-20 17:05 15.60011 -90.56889 36199 ft 486 kts 301°
2026-04-20 17:05 15.63366 -90.62589 36182 ft 486 kts 301°
2026-04-20 17:06 15.66380 -90.67714 36168 ft 485 kts 301°
2026-04-20 17:06 15.69385 -90.72827 36156 ft 485 kts 301°
2026-04-20 17:07 15.72495 -90.78123 36155 ft 485 kts 301°
2026-04-20 17:07 15.75739 -90.83651 36155 ft 485 kts 301°
2026-04-20 17:08 15.79081 -90.89351 36155 ft 485 kts 301°
2026-04-20 17:08 15.82340 -90.94913 36155 ft 485 kts 301°
2026-04-20 17:09 15.85487 -91.00288 36149 ft 485 kts 301°
2026-04-20 17:09 15.88359 -91.05196 36120 ft 486 kts 301°
2026-04-20 17:10 15.91457 -91.10494 36112 ft 485 kts 301°
2026-04-20 17:10 15.94465 -91.15644 36107 ft 485 kts 301°
2026-04-20 17:11 15.97707 -91.21197 36101 ft 485 kts 300°
2026-04-20 17:11 16.00914 -91.26692 36102 ft 483 kts 300°
2026-04-20 17:12 16.04121 -91.32194 36100 ft 482 kts 300°
2026-04-20 17:12 16.07378 -91.37680 36085 ft 483 kts 305°
2026-04-20 17:13 16.10765 -91.42074 36099 ft 484 kts 308°
2026-04-20 17:13 16.14519 -91.46826 36099 ft 484 kts 308°
2026-04-20 17:14 16.18320 -91.51612 36098 ft 484 kts 309°
2026-04-20 17:14 16.22168 -91.56450 36093 ft 484 kts 309°
2026-04-20 17:15 16.26254 -91.61584 36088 ft 484 kts 309°
2026-04-20 17:15 16.30053 -91.66361 36087 ft 484 kts 308°
2026-04-20 17:16 16.33700 -91.70949 36083 ft 484 kts 308°
2026-04-20 17:16 16.37276 -91.75449 36082 ft 484 kts 308°
2026-04-20 17:17 16.40886 -91.79996 36082 ft 484 kts 308°
2026-04-20 17:17 16.44690 -91.84789 36082 ft 484 kts 308°
2026-04-20 17:18 16.48499 -91.89592 36082 ft 484 kts 308°
2026-04-20 17:18 16.52314 -91.94407 36083 ft 484 kts 308°
2026-04-20 17:19 16.56208 -91.99323 36086 ft 484 kts 308°
2026-04-20 17:19 16.60074 -92.04204 36089 ft 484 kts 308°
2026-04-20 17:20 16.63844 -92.08973 36093 ft 484 kts 308°
2026-04-20 17:20 16.67615 -92.13746 36094 ft 484 kts 308°
2026-04-20 17:21 16.71444 -92.18594 36093 ft 484 kts 308°
2026-04-20 17:21 16.75204 -92.23357 36088 ft 484 kts 308°
2026-04-20 17:22 16.78957 -92.28117 36084 ft 484 kts 308°
2026-04-20 17:22 16.82747 -92.32926 36081 ft 485 kts 308°
2026-04-20 17:23 16.86534 -92.37734 36080 ft 484 kts 308°
2026-04-20 17:23 16.90333 -92.42562 36081 ft 484 kts 308°
2026-04-20 17:24 16.94034 -92.47268 36081 ft 485 kts 308°
2026-04-20 17:24 16.97862 -92.52137 36080 ft 484 kts 308°
2026-04-20 17:25 17.01735 -92.57070 36080 ft 484 kts 308°
2026-04-20 17:25 17.05658 -92.62069 36080 ft 484 kts 308°
2026-04-20 17:26 17.09419 -92.66865 36084 ft 484 kts 307°
2026-04-20 17:26 17.12971 -92.71395 36082 ft 484 kts 307°
2026-04-20 17:27 17.16620 -92.76055 36082 ft 484 kts 307°
2026-04-20 17:27 17.20119 -92.80526 36082 ft 484 kts 307°
2026-04-20 17:28 17.24002 -92.85492 36082 ft 484 kts 307°
2026-04-20 17:28 17.27986 -92.90589 36084 ft 485 kts 307°
2026-04-20 17:29 17.32026 -92.95762 36091 ft 485 kts 307°
2026-04-20 17:29 17.36107 -93.00989 36099 ft 484 kts 307°
2026-04-20 17:30 17.40169 -93.06200 36107 ft 484 kts 307°
2026-04-20 17:30 17.44204 -93.11379 36114 ft 484 kts 307°
2026-04-20 17:31 17.48024 -93.16287 36117 ft 484 kts 307°
2026-04-20 17:31 17.52108 -93.21536 36118 ft 484 kts 307°
2026-04-20 17:32 17.56210 -93.26812 36117 ft 484 kts 307°
2026-04-20 17:32 17.60303 -93.32083 36117 ft 485 kts 307°
2026-04-20 17:33 17.64382 -93.37337 36117 ft 484 kts 307°
2026-04-20 17:33 17.68456 -93.42592 36116 ft 484 kts 307°
2026-04-20 17:34 17.72460 -93.47759 36117 ft 485 kts 307°
2026-04-20 17:34 17.76105 -93.52467 36116 ft 485 kts 307°
2026-04-20 17:35 17.80141 -93.57684 36117 ft 485 kts 307°
2026-04-20 17:35 17.84137 -93.62852 36116 ft 485 kts 307°
2026-04-20 17:36 17.87903 -93.67729 36121 ft 485 kts 306°
2026-04-20 17:36 17.91599 -93.72515 36120 ft 485 kts 306°
2026-04-20 17:37 17.95280 -93.77285 36120 ft 485 kts 306°
2026-04-20 17:37 17.99098 -93.82240 36121 ft 484 kts 306°
2026-04-20 17:38 18.02935 -93.87223 36122 ft 484 kts 306°
2026-04-20 17:38 18.06963 -93.92457 36128 ft 484 kts 306°
2026-04-20 17:39 18.10918 -93.97601 36132 ft 484 kts 306°
2026-04-20 17:39 18.14752 -94.02591 36136 ft 484 kts 306°
2026-04-20 17:40 18.18571 -94.07564 36142 ft 484 kts 306°
2026-04-20 17:40 18.22360 -94.12503 36144 ft 484 kts 306°
2026-04-20 17:41 18.26479 -94.17877 36144 ft 484 kts 306°
2026-04-20 17:41 18.30456 -94.23066 36144 ft 484 kts 306°
2026-04-20 17:42 18.34588 -94.28467 36144 ft 484 kts 306°
2026-04-20 17:42 18.38682 -94.33822 36143 ft 484 kts 306°
2026-04-20 17:43 18.42809 -94.39223 36144 ft 484 kts 306°
2026-04-20 17:43 18.46934 -94.44624 36143 ft 483 kts 306°
2026-04-20 17:44 18.51062 -94.50039 36143 ft 484 kts 306°
2026-04-20 17:44 18.55064 -94.55288 36143 ft 483 kts 306°
2026-04-20 17:45 18.59137 -94.60639 36142 ft 483 kts 306°
2026-04-20 17:45 18.63097 -94.65842 36144 ft 482 kts 306°
2026-04-20 17:46 18.66777 -94.70686 36148 ft 482 kts 306°
2026-04-20 17:46 18.70541 -94.75641 36148 ft 482 kts 306°
2026-04-20 17:47 18.74377 -94.80695 36148 ft 482 kts 306°
2026-04-20 17:47 18.78456 -94.86073 36156 ft 482 kts 305°
2026-04-20 17:48 18.82372 -94.91242 36166 ft 482 kts 305°
2026-04-20 17:48 18.86210 -94.96312 36175 ft 482 kts 305°
2026-04-20 17:49 18.90222 -95.01615 36185 ft 482 kts 305°
2026-04-20 17:49 18.94293 -95.07000 36192 ft 481 kts 305°
2026-04-20 17:50 18.98303 -95.12312 36192 ft 481 kts 305°
2026-04-20 17:50 19.02298 -95.17608 36192 ft 481 kts 305°
2026-04-20 17:51 19.06291 -95.22903 36191 ft 481 kts 305°
2026-04-20 17:51 19.10101 -95.27963 36189 ft 481 kts 305°
2026-04-20 17:52 19.13862 -95.32961 36183 ft 481 kts 305°
2026-04-20 17:52 19.17653 -95.38002 36181 ft 480 kts 305°
2026-04-20 17:53 19.21473 -95.43087 36179 ft 480 kts 305°
2026-04-20 17:53 19.25562 -95.48533 36178 ft 480 kts 305°
2026-04-20 17:54 19.29596 -95.53914 36178 ft 480 kts 305°
2026-04-20 17:54 19.33618 -95.59281 36178 ft 480 kts 305°
2026-04-20 17:55 19.37502 -95.64468 36178 ft 480 kts 305°
2026-04-20 17:55 19.41051 -95.69214 36183 ft 479 kts 304°
2026-04-20 17:56 19.44629 -95.73999 36184 ft 480 kts 304°
2026-04-20 17:56 19.48179 -95.78754 36184 ft 480 kts 304°
2026-04-20 17:57 19.51914 -95.83758 36183 ft 479 kts 304°
2026-04-20 17:57 19.55616 -95.88724 36183 ft 479 kts 304°
2026-04-20 17:58 19.59337 -95.93720 36183 ft 479 kts 304°
2026-04-20 17:58 19.62916 -95.98529 36183 ft 479 kts 304°
2026-04-20 17:59 19.66607 -96.03488 36185 ft 479 kts 304°
2026-04-20 17:59 19.70183 -96.08301 36186 ft 479 kts 304°
2026-04-20 18:00 19.73909 -96.13320 36183 ft 479 kts 304°
2026-04-20 18:00 19.77558 -96.18239 36177 ft 479 kts 304°
2026-04-20 18:01 19.81193 -96.23142 36167 ft 479 kts 304°
2026-04-20 18:01 19.84874 -96.28111 36155 ft 479 kts 304°
2026-04-20 18:02 19.88519 -96.33037 36154 ft 479 kts 304°
2026-04-20 18:02 19.92122 -96.37909 36154 ft 479 kts 304°
2026-04-20 18:03 19.95820 -96.42913 36154 ft 479 kts 304°
2026-04-20 18:03 19.99570 -96.47994 36154 ft 479 kts 304°
2026-04-20 18:04 20.03328 -96.53084 36152 ft 477 kts 304°
2026-04-20 18:04 20.07129 -96.58244 36153 ft 477 kts 304°
2026-04-20 18:05 20.12548 -96.65604 36149 ft 477 kts 303°
2026-04-20 18:05 20.15879 -96.70135 36155 ft 477 kts 303°
2026-04-20 18:06 20.19376 -96.74787 36145 ft 479 kts 307°
2026-04-20 18:06 20.23258 -96.79262 36154 ft 479 kts 308°
2026-04-20 18:07 20.27301 -96.83903 36155 ft 479 kts 308°
2026-04-20 18:07 20.31423 -96.88630 36155 ft 479 kts 308°
2026-04-20 18:08 20.35631 -96.93458 36154 ft 479 kts 308°
2026-04-20 18:08 20.39831 -96.98279 36154 ft 479 kts 308°
2026-04-20 18:09 20.43991 -97.03059 36149 ft 478 kts 308°
2026-04-20 18:09 20.47985 -97.07648 36142 ft 477 kts 308°
2026-04-20 18:10 20.52118 -97.12405 36137 ft 478 kts 308°
2026-04-20 18:10 20.56153 -97.17053 36131 ft 478 kts 308°
2026-04-20 18:11 20.60293 -97.21824 36126 ft 478 kts 308°
2026-04-20 18:11 20.64469 -97.26641 36126 ft 477 kts 308°
2026-04-20 18:12 20.68602 -97.31412 36125 ft 477 kts 308°
2026-04-20 18:12 20.72688 -97.36134 36125 ft 477 kts 308°
2026-04-20 18:13 20.76660 -97.40728 36125 ft 477 kts 308°
2026-04-20 18:13 20.80857 -97.45584 36125 ft 477 kts 308°
2026-04-20 18:14 20.85032 -97.50422 36125 ft 477 kts 308°
2026-04-20 18:14 20.89198 -97.55254 36124 ft 477 kts 308°
2026-04-20 18:15 20.93406 -97.60136 36123 ft 476 kts 308°
2026-04-20 18:15 20.97646 -97.65063 36124 ft 476 kts 307°
2026-04-20 18:16 21.01250 -97.69250 36139 ft 475 kts 307°
2026-04-20 18:16 21.05103 -97.73734 36147 ft 475 kts 307°
2026-04-20 18:17 21.08968 -97.78234 36153 ft 474 kts 307°
2026-04-20 18:17 21.12785 -97.82682 36155 ft 473 kts 307°
2026-04-20 18:18 21.16725 -97.87278 36155 ft 473 kts 307°
2026-04-20 18:18 21.20691 -97.91907 36154 ft 472 kts 307°
2026-04-20 18:19 21.24919 -97.96848 36165 ft 473 kts 307°
2026-04-20 18:19 21.29203 -98.01856 36179 ft 472 kts 307°
2026-04-20 18:20 21.33442 -98.06819 36194 ft 472 kts 307°
2026-04-20 18:20 21.37589 -98.11677 36208 ft 472 kts 307°
2026-04-20 18:21 21.41894 -98.16727 36224 ft 472 kts 307°
2026-04-20 18:21 21.46161 -98.21737 36225 ft 472 kts 307°
2026-04-20 18:22 21.50409 -98.26727 36222 ft 471 kts 307°
2026-04-20 18:22 21.54646 -98.31711 36219 ft 471 kts 307°
2026-04-20 18:23 21.58852 -98.36663 36217 ft 471 kts 307°
2026-04-20 18:23 21.62983 -98.41530 36215 ft 470 kts 307°
2026-04-20 18:24 21.67017 -98.46288 36214 ft 470 kts 307°
2026-04-20 18:24 21.70955 -98.50934 36214 ft 471 kts 307°
2026-04-20 18:25 21.75044 -98.55764 36214 ft 471 kts 306°
2026-04-20 18:25 21.79113 -98.60577 36214 ft 471 kts 307°
2026-04-20 18:26 21.83042 -98.65227 36213 ft 471 kts 306°
2026-04-20 18:26 21.86558 -98.69391 36224 ft 470 kts 306°
2026-04-20 18:27 21.90205 -98.73714 36223 ft 471 kts 306°
2026-04-20 18:27 21.93761 -98.77932 36225 ft 471 kts 306°
2026-04-20 18:28 21.97748 -98.82667 36224 ft 471 kts 306°
2026-04-20 18:28 22.01850 -98.87536 36225 ft 469 kts 306°
2026-04-20 18:29 22.06011 -98.92486 36235 ft 467 kts 306°
2026-04-20 18:29 22.10099 -98.97356 36254 ft 469 kts 306°
2026-04-20 18:30 22.13840 -99.01817 36261 ft 469 kts 306°
2026-04-20 18:30 22.17696 -99.06417 36274 ft 469 kts 306°
2026-04-20 18:31 22.21411 -99.10851 36284 ft 468 kts 306°
2026-04-20 18:31 22.25398 -99.15616 36289 ft 468 kts 306°
2026-04-20 18:32 22.29522 -99.20550 36288 ft 468 kts 306°
2026-04-20 18:32 22.33623 -99.25460 36288 ft 468 kts 306°
2026-04-20 18:33 22.37696 -99.30339 36287 ft 469 kts 305°
2026-04-20 18:33 22.41781 -99.35239 36287 ft 469 kts 305°
2026-04-20 18:34 22.45845 -99.40117 36287 ft 468 kts 305°
2026-04-20 18:34 22.49877 -99.44964 36286 ft 468 kts 305°
2026-04-20 18:35 22.53900 -99.49805 36286 ft 468 kts 305°
2026-04-20 18:35 22.58104 -99.54868 36285 ft 468 kts 305°
2026-04-20 18:36 22.62319 -99.59950 36285 ft 468 kts 305°
2026-04-20 18:36 22.66541 -99.65044 36285 ft 468 kts 305°
2026-04-20 18:37 22.70394 -99.69700 36297 ft 467 kts 305°
2026-04-20 18:37 22.74275 -99.74391 36295 ft 467 kts 305°
2026-04-20 18:38 22.78198 -99.79138 36288 ft 467 kts 305°
2026-04-20 18:38 22.82263 -99.84062 36281 ft 467 kts 305°
2026-04-20 18:39 22.86493 -99.89191 36286 ft 467 kts 305°
2026-04-20 18:39 22.90757 -99.94366 36299 ft 467 kts 305°
2026-04-20 18:40 22.95012 -99.99536 36316 ft 467 kts 305°
2026-04-20 18:40 22.99182 -100.04610 36332 ft 466 kts 305°
2026-04-20 18:41 23.03502 -100.09867 36349 ft 466 kts 305°
2026-04-20 18:41 23.07817 -100.15125 36350 ft 467 kts 305°
2026-04-20 18:42 23.11803 -100.19989 36342 ft 467 kts 305°
2026-04-20 18:42 23.15823 -100.24896 36341 ft 467 kts 305°
2026-04-20 18:43 23.19861 -100.29833 36342 ft 466 kts 305°
2026-04-20 18:43 23.24156 -100.35088 36341 ft 466 kts 305°
2026-04-20 18:44 23.28543 -100.40461 36340 ft 466 kts 305°
2026-04-20 18:44 23.32871 -100.45768 36340 ft 466 kts 305°
2026-04-20 18:45 23.37125 -100.50990 36339 ft 466 kts 305°
2026-04-20 18:45 23.41355 -100.56188 36328 ft 466 kts 305°
2026-04-20 18:46 23.45705 -100.61538 36314 ft 465 kts 305°
2026-04-20 18:46 23.49769 -100.66543 36314 ft 466 kts 305°
2026-04-20 18:47 23.53798 -100.71511 36305 ft 466 kts 305°
2026-04-20 18:47 23.57825 -100.76479 36305 ft 465 kts 305°
2026-04-20 18:48 23.62040 -100.81684 36305 ft 465 kts 305°
2026-04-20 18:48 23.66384 -100.87057 36309 ft 464 kts 305°
2026-04-20 18:49 23.70380 -100.92002 36316 ft 464 kts 305°
2026-04-20 18:49 23.74753 -100.97421 36318 ft 465 kts 305°
2026-04-20 18:50 23.79309 -101.03074 36326 ft 464 kts 305°
2026-04-20 18:50 23.83831 -101.08690 36329 ft 465 kts 305°
2026-04-20 18:51 23.88308 -101.14256 36323 ft 464 kts 305°
2026-04-20 18:51 23.92764 -101.19802 36315 ft 463 kts 305°
2026-04-20 18:52 23.97080 -101.25182 36308 ft 464 kts 306°
2026-04-20 18:52 24.01562 -101.30773 36300 ft 462 kts 306°
2026-04-20 18:53 24.06035 -101.36360 36298 ft 461 kts 306°
2026-04-20 18:53 24.10347 -101.41751 36298 ft 462 kts 306°
2026-04-20 18:54 24.14317 -101.46721 36294 ft 462 kts 306°
2026-04-20 18:54 24.18129 -101.51954 36295 ft 459 kts 302°
2026-04-20 18:55 24.21954 -101.57446 36293 ft 458 kts 302°
2026-04-20 18:55 24.25812 -101.63012 36293 ft 458 kts 302°
2026-04-20 18:56 24.29504 -101.68351 36305 ft 458 kts 302°
2026-04-20 18:56 24.33179 -101.73673 36304 ft 458 kts 302°
2026-04-20 18:57 24.36858 -101.79006 36303 ft 458 kts 302°
2026-04-20 18:57 24.40803 -101.84734 36303 ft 458 kts 302°
2026-04-20 18:58 24.44766 -101.90492 36302 ft 458 kts 302°
2026-04-20 18:58 24.48732 -101.96262 36302 ft 457 kts 302°
2026-04-20 18:59 24.52541 -102.01814 36297 ft 457 kts 302°
2026-04-20 18:59 24.56430 -102.07503 36316 ft 451 kts 299°
2026-04-20 19:00 24.57846 -102.09895 37751 ft 401 kts 296°
2026-04-20 19:00 24.59188 -102.12562 36784 ft 428 kts 291°
2026-04-20 19:00 24.60419 -102.15518 36326 ft 445 kts 295°
2026-04-20 19:00 24.62369 -102.18183 36302 ft 462 kts 310°
2026-04-20 19:01 24.66648 -102.23224 36261 ft 460 kts 306°
2026-04-20 19:01 24.70415 -102.28271 36253 ft 457 kts 303°
2026-04-20 19:02 24.74127 -102.33516 36252 ft 456 kts 302°
2026-04-20 19:02 24.77702 -102.38680 36251 ft 455 kts 302°
2026-04-20 19:03 24.81357 -102.44021 36252 ft 456 kts 302°
2026-04-20 19:03 24.85013 -102.49383 36251 ft 455 kts 302°
2026-04-20 19:04 24.88651 -102.54735 36250 ft 454 kts 302°
2026-04-20 19:04 24.92298 -102.60110 36249 ft 454 kts 302°
2026-04-20 19:05 24.95892 -102.65416 36250 ft 454 kts 302°
2026-04-20 19:05 24.99427 -102.70638 36260 ft 454 kts 302°
2026-04-20 19:06 25.02897 -102.75770 36259 ft 453 kts 302°
2026-04-20 19:06 25.06439 -102.81015 36260 ft 453 kts 302°
2026-04-20 19:07 25.09973 -102.86257 36259 ft 453 kts 302°
2026-04-20 19:07 25.13469 -102.91445 36256 ft 453 kts 302°
2026-04-20 19:08 25.18789 -102.99351 36245 ft 451 kts 302°
2026-04-20 19:09 25.22293 -103.04567 36232 ft 451 kts 302°
2026-04-20 19:09 25.25690 -103.09628 36218 ft 451 kts 302°
2026-04-20 19:10 25.28980 -103.14535 36203 ft 451 kts 302°
2026-04-20 19:10 25.31785 -103.18723 36193 ft 450 kts 301°
2026-04-20 19:11 25.34629 -103.22975 36188 ft 450 kts 302°
2026-04-20 19:11 25.38112 -103.28182 36187 ft 450 kts 302°
2026-04-20 19:12 25.41551 -103.33330 36187 ft 449 kts 302°
2026-04-20 19:12 25.44989 -103.38484 36186 ft 449 kts 302°
2026-04-20 19:13 25.48425 -103.43641 36186 ft 449 kts 302°
2026-04-20 19:13 25.51846 -103.48782 36184 ft 447 kts 302°
2026-04-20 19:14 25.55192 -103.53811 36183 ft 447 kts 301°
2026-04-20 19:14 25.58556 -103.58877 36183 ft 447 kts 301°
2026-04-20 19:15 25.61973 -103.64028 36183 ft 447 kts 301°
2026-04-20 19:15 25.65002 -103.68602 36196 ft 447 kts 301°
2026-04-20 19:16 25.68524 -103.73918 36195 ft 446 kts 301°
2026-04-20 19:16 25.72019 -103.79203 36195 ft 445 kts 301°
2026-04-20 19:17 25.75466 -103.84420 36194 ft 445 kts 301°
2026-04-20 19:17 25.78914 -103.89646 36196 ft 445 kts 301°
2026-04-20 19:18 25.82403 -103.94938 36202 ft 444 kts 301°
2026-04-20 19:18 25.85968 -104.00355 36210 ft 444 kts 301°
2026-04-20 19:19 25.89519 -104.05756 36217 ft 444 kts 301°
2026-04-20 19:19 25.93075 -104.11170 36222 ft 444 kts 301°
2026-04-20 19:20 25.96550 -104.16467 36226 ft 444 kts 301°
2026-04-20 19:20 26.00059 -104.21823 36226 ft 444 kts 301°
2026-04-20 19:21 26.03167 -104.26570 36225 ft 444 kts 301°
2026-04-20 19:21 26.06581 -104.31792 36224 ft 444 kts 301°
2026-04-20 19:22 26.10085 -104.37156 36224 ft 444 kts 301°
2026-04-20 19:22 26.13459 -104.42328 36221 ft 444 kts 301°
2026-04-20 19:23 26.16886 -104.47588 36190 ft 445 kts 301°
2026-04-20 19:23 26.19731 -104.51958 36184 ft 444 kts 301°
2026-04-20 19:24 26.23171 -104.57245 36183 ft 445 kts 301°
2026-04-20 19:24 26.26604 -104.62531 36182 ft 445 kts 301°
2026-04-20 19:25 26.29809 -104.67473 36197 ft 445 kts 301°
2026-04-20 19:25 26.33221 -104.72739 36194 ft 444 kts 301°
2026-04-20 19:26 26.36637 -104.78014 36195 ft 445 kts 301°
2026-04-20 19:26 26.40017 -104.83241 36194 ft 445 kts 301°
2026-04-20 19:27 26.43364 -104.88425 36193 ft 445 kts 301°
2026-04-20 19:27 26.46702 -104.93600 36188 ft 444 kts 301°
2026-04-20 19:28 26.50004 -104.98724 36181 ft 444 kts 301°
2026-04-20 19:28 26.53232 -105.03739 36175 ft 444 kts 301°
2026-04-20 19:29 26.56483 -105.08795 36169 ft 444 kts 301°
2026-04-20 19:29 26.59792 -105.13947 36162 ft 444 kts 301°
2026-04-20 19:30 26.63093 -105.19093 36162 ft 444 kts 301°
2026-04-20 19:30 26.66400 -105.24255 36160 ft 443 kts 301°
2026-04-20 19:31 26.69690 -105.29394 36161 ft 444 kts 301°
2026-04-20 19:31 26.72962 -105.34512 36159 ft 444 kts 301°
2026-04-20 19:32 26.76141 -105.39491 36159 ft 444 kts 301°
2026-04-20 19:32 26.79256 -105.44376 36157 ft 443 kts 301°
2026-04-20 19:33 26.82457 -105.49398 36157 ft 443 kts 301°
2026-04-20 19:33 26.85680 -105.54462 36157 ft 443 kts 301°
2026-04-20 19:34 26.88907 -105.59538 36156 ft 443 kts 301°
2026-04-20 19:34 26.92152 -105.64646 36158 ft 444 kts 301°
2026-04-20 19:35 26.95276 -105.69574 36176 ft 444 kts 300°
2026-04-20 19:35 26.98460 -105.74598 36179 ft 444 kts 300°
2026-04-20 19:36 27.01593 -105.79547 36183 ft 444 kts 300°
2026-04-20 19:36 27.04366 -105.83934 36185 ft 444 kts 300°
2026-04-20 19:37 27.07668 -105.89162 36197 ft 444 kts 300°
2026-04-20 19:37 27.10819 -105.94155 36210 ft 443 kts 300°
2026-04-20 19:38 27.14120 -105.99395 36224 ft 443 kts 300°
2026-04-20 19:38 27.17418 -106.04639 36238 ft 442 kts 300°
2026-04-20 19:39 27.20658 -106.09790 36253 ft 443 kts 300°
2026-04-20 19:39 27.23760 -106.14731 36253 ft 443 kts 300°
2026-04-20 19:40 27.26937 -106.19796 36252 ft 443 kts 300°
2026-04-20 19:40 27.29968 -106.24636 36252 ft 444 kts 300°
2026-04-20 19:41 27.33154 -106.29725 36251 ft 443 kts 300°
2026-04-20 19:41 27.36402 -106.34921 36250 ft 443 kts 300°
2026-04-20 19:42 27.39583 -106.40015 36251 ft 443 kts 300°
2026-04-20 19:42 27.42944 -106.45405 36249 ft 443 kts 300°
2026-04-20 19:43 27.46419 -106.50989 36256 ft 453 kts 300°
2026-04-20 19:43 27.49729 -106.56312 36248 ft 455 kts 300°
2026-04-20 19:44 27.52836 -106.61307 36245 ft 453 kts 300°
2026-04-20 19:44 27.56027 -106.66450 36257 ft 453 kts 300°
2026-04-20 19:45 27.59240 -106.71637 36260 ft 453 kts 300°
2026-04-20 19:45 27.62405 -106.76748 36259 ft 453 kts 300°
2026-04-20 19:46 27.65580 -106.81880 36260 ft 453 kts 300°
2026-04-20 19:46 27.68750 -106.87012 36276 ft 454 kts 300°
2026-04-20 19:47 27.71832 -106.92005 36292 ft 453 kts 300°
2026-04-20 19:47 27.74872 -106.96939 36308 ft 453 kts 300°
2026-04-20 19:48 27.77873 -107.01819 36325 ft 453 kts 300°
2026-04-20 19:48 27.81008 -107.06916 36337 ft 453 kts 300°
2026-04-20 19:49 27.84118 -107.11979 36336 ft 452 kts 300°
2026-04-20 19:49 27.87228 -107.17050 36336 ft 451 kts 300°
2026-04-20 19:50 27.90304 -107.22070 36335 ft 451 kts 300°
2026-04-20 19:50 27.93358 -107.27058 36334 ft 450 kts 300°
2026-04-20 19:51 27.96370 -107.31986 36334 ft 450 kts 300°
2026-04-20 19:51 27.99377 -107.36913 36334 ft 451 kts 300°
2026-04-20 19:52 28.02316 -107.41731 36335 ft 453 kts 300°
2026-04-20 19:52 28.05341 -107.46696 36332 ft 452 kts 300°
2026-04-20 19:53 28.08393 -107.51710 36331 ft 452 kts 300°
2026-04-20 19:53 28.11279 -107.56461 36329 ft 451 kts 300°
2026-04-20 19:54 28.13729 -107.60495 36329 ft 451 kts 300°
2026-04-20 19:54 28.16403 -107.64904 36328 ft 451 kts 300°
2026-04-20 19:55 28.19359 -107.69784 36334 ft 451 kts 300°
2026-04-20 19:55 28.22360 -107.74744 36323 ft 451 kts 300°
2026-04-20 19:56 28.24826 -107.78824 36315 ft 451 kts 300°
2026-04-20 19:56 28.28177 -107.84374 36302 ft 450 kts 300°
2026-04-20 19:57 28.31184 -107.89363 36291 ft 451 kts 300°
2026-04-20 19:57 28.34177 -107.94333 36284 ft 451 kts 300°
2026-04-20 19:58 28.37192 -107.99345 36283 ft 451 kts 300°
2026-04-20 19:58 28.40211 -108.04370 36274 ft 449 kts 300°
2026-04-20 19:59 28.43239 -108.09418 36261 ft 450 kts 300°
2026-04-20 19:59 28.46240 -108.14422 36247 ft 450 kts 300°
2026-04-20 20:00 28.49238 -108.19430 36233 ft 450 kts 300°
2026-04-20 20:00 28.52144 -108.24291 36220 ft 451 kts 300°
2026-04-20 20:01 28.55156 -108.29334 36215 ft 451 kts 300°
2026-04-20 20:01 28.58172 -108.34388 36214 ft 451 kts 300°
2026-04-20 20:02 28.61163 -108.39407 36213 ft 452 kts 300°
2026-04-20 20:02 28.64134 -108.44402 36213 ft 452 kts 300°
2026-04-20 20:03 28.67174 -108.49516 36207 ft 452 kts 300°
2026-04-20 20:03 28.70230 -108.54682 36200 ft 453 kts 300°
2026-04-20 20:04 28.73306 -108.59885 36192 ft 453 kts 300°
2026-04-20 20:04 28.76327 -108.65001 36184 ft 453 kts 299°
2026-04-20 20:05 28.79296 -108.70039 36190 ft 453 kts 300°
2026-04-20 20:05 28.82405 -108.75317 36186 ft 453 kts 300°
2026-04-20 20:06 28.85530 -108.80629 36186 ft 453 kts 299°
2026-04-20 20:06 28.88696 -108.86024 36185 ft 454 kts 300°
2026-04-20 20:07 28.91862 -108.91422 36184 ft 453 kts 300°
2026-04-20 20:07 28.95043 -108.96852 36183 ft 453 kts 300°
2026-04-20 20:08 28.98234 -109.02305 36173 ft 453 kts 300°
2026-04-20 20:08 29.01358 -109.07652 36162 ft 453 kts 300°
2026-04-20 20:09 29.04468 -109.12982 36151 ft 453 kts 300°
2026-04-20 20:09 29.07691 -109.18515 36140 ft 453 kts 300°
2026-04-20 20:10 29.10846 -109.23935 36133 ft 453 kts 300°
2026-04-20 20:10 29.13956 -109.29285 36133 ft 454 kts 300°
2026-04-20 20:11 29.17227 -109.34919 36132 ft 453 kts 300°
2026-04-20 20:11 29.20491 -109.40552 36132 ft 454 kts 300°
2026-04-20 20:12 29.23776 -109.46225 36131 ft 454 kts 300°
2026-04-20 20:12 29.26953 -109.51724 36130 ft 454 kts 300°
2026-04-20 20:13 29.31820 -109.60156 36129 ft 454 kts 300°
2026-04-20 20:13 29.35019 -109.65709 36131 ft 455 kts 300°
2026-04-20 20:14 29.38290 -109.71394 36141 ft 455 kts 300°
2026-04-20 20:14 29.41544 -109.77059 36138 ft 455 kts 300°
2026-04-20 20:15 29.44823 -109.82771 36139 ft 456 kts 300°
2026-04-20 20:15 29.48073 -109.88445 36138 ft 455 kts 300°
2026-04-20 20:16 29.51301 -109.94085 36136 ft 455 kts 300°
2026-04-20 20:16 29.54470 -109.99630 36119 ft 455 kts 300°
2026-04-20 20:17 29.57708 -110.05306 36101 ft 455 kts 300°
2026-04-20 20:17 29.60880 -110.10871 36083 ft 455 kts 300°
2026-04-20 20:18 29.64160 -110.16635 36065 ft 455 kts 300°
2026-04-20 20:18 29.67460 -110.22442 36061 ft 455 kts 300°
2026-04-20 20:19 29.70741 -110.28224 36060 ft 455 kts 300°
2026-04-20 20:19 29.74025 -110.34020 36059 ft 455 kts 300°
2026-04-20 20:20 29.77180 -110.39595 36058 ft 455 kts 300°
2026-04-20 20:20 29.80430 -110.45348 36058 ft 455 kts 300°
2026-04-20 20:21 29.83730 -110.51195 36057 ft 455 kts 300°
2026-04-20 20:21 29.87078 -110.57138 36056 ft 455 kts 300°
2026-04-20 20:22 29.90430 -110.63095 36055 ft 453 kts 300°
2026-04-20 20:22 29.93700 -110.68917 36070 ft 454 kts 299°
2026-04-20 20:23 29.97033 -110.74857 36080 ft 454 kts 299°
2026-04-20 20:23 30.00339 -110.80758 36091 ft 454 kts 300°
2026-04-20 20:24 30.03584 -110.86569 36102 ft 456 kts 300°
2026-04-20 20:24 30.06990 -110.92665 36108 ft 457 kts 300°
2026-04-20 20:25 30.10311 -110.98618 36107 ft 456 kts 300°
2026-04-20 20:25 30.13690 -111.04645 36102 ft 457 kts 300°
2026-04-20 20:26 30.17121 -111.10766 36094 ft 455 kts 300°
2026-04-20 20:26 30.20524 -111.16846 36090 ft 455 kts 300°
2026-04-20 20:27 30.23917 -111.22917 36088 ft 455 kts 300°
2026-04-20 20:27 30.27165 -111.28735 36088 ft 455 kts 300°
2026-04-20 20:28 30.30554 -111.34816 36088 ft 455 kts 300°
2026-04-20 20:28 30.33946 -111.40909 36086 ft 454 kts 300°
2026-04-20 20:29 30.37178 -111.46726 36087 ft 454 kts 300°
2026-04-20 20:29 30.40317 -111.52383 36068 ft 454 kts 300°
2026-04-20 20:30 30.43583 -111.58279 36066 ft 454 kts 300°
2026-04-20 20:30 30.46836 -111.64159 36065 ft 454 kts 300°
2026-04-20 20:31 30.50182 -111.70217 36076 ft 454 kts 300°
2026-04-20 20:31 30.53451 -111.76144 36076 ft 454 kts 300°
2026-04-20 20:32 30.56782 -111.82188 36075 ft 454 kts 300°
2026-04-20 20:32 30.59991 -111.88026 36075 ft 455 kts 300°
2026-04-20 20:33 30.63167 -111.93813 36066 ft 455 kts 300°
2026-04-20 20:33 30.66478 -111.99851 36051 ft 455 kts 300°
2026-04-20 20:34 30.69788 -112.05900 36032 ft 456 kts 300°
2026-04-20 20:34 30.73104 -112.11966 36016 ft 455 kts 300°
2026-04-20 20:35 30.76235 -112.17703 36016 ft 456 kts 300°
2026-04-20 20:35 30.79365 -112.23444 36014 ft 457 kts 300°
2026-04-20 20:36 30.82591 -112.29375 36013 ft 457 kts 300°
2026-04-20 20:36 30.85789 -112.35263 36013 ft 458 kts 300°
2026-04-20 20:37 30.88955 -112.41095 36011 ft 459 kts 300°
2026-04-20 20:37 30.92147 -112.46985 36012 ft 459 kts 300°
2026-04-20 20:38 30.95382 -112.52969 36012 ft 460 kts 301°
2026-04-20 20:38 30.98585 -112.58897 36009 ft 460 kts 301°
2026-04-20 20:39 31.01796 -112.64851 36009 ft 460 kts 301°
2026-04-20 20:39 31.04841 -112.70504 36019 ft 460 kts 300°
2026-04-20 20:40 31.08159 -112.76674 36020 ft 461 kts 300°
2026-04-20 20:40 31.11204 -112.82344 36028 ft 461 kts 300°
2026-04-20 20:41 31.14467 -112.88431 36032 ft 462 kts 300°
2026-04-20 20:41 31.17512 -112.94122 36038 ft 462 kts 300°
2026-04-20 20:42 31.20736 -113.00153 36039 ft 464 kts 300°
2026-04-20 20:42 31.24264 -113.06767 36039 ft 464 kts 300°
2026-04-20 20:43 31.27796 -113.13396 36036 ft 465 kts 300°
2026-04-20 20:43 31.31285 -113.19958 36031 ft 466 kts 300°
2026-04-20 20:44 31.34693 -113.26377 36022 ft 466 kts 300°
2026-04-20 20:44 31.37602 -113.33205 36025 ft 466 kts 292°
2026-04-20 20:45 31.40142 -113.40447 36014 ft 467 kts 291°
2026-04-20 20:45 31.42595 -113.47612 36000 ft 468 kts 291°
2026-04-20 20:46 31.45134 -113.55098 35984 ft 469 kts 291°
2026-04-20 20:46 31.47657 -113.62576 35965 ft 469 kts 291°
2026-04-20 20:47 31.49954 -113.69406 35962 ft 470 kts 290°
2026-04-20 20:47 31.52201 -113.76101 35967 ft 472 kts 290°
2026-04-20 20:48 31.54476 -113.82897 35971 ft 472 kts 290°
2026-04-20 20:48 31.56866 -113.90051 35972 ft 473 kts 290°
2026-04-20 20:49 31.59170 -113.96963 35970 ft 473 kts 290°
2026-04-20 20:49 31.61046 -114.02597 35967 ft 474 kts 290°
2026-04-20 20:50 31.63261 -114.09268 35965 ft 474 kts 290°
2026-04-20 20:50 31.65377 -114.15653 35961 ft 474 kts 290°
2026-04-20 20:51 31.67828 -114.23064 35953 ft 474 kts 290°
2026-04-20 20:51 31.70258 -114.30430 35943 ft 474 kts 290°
2026-04-20 20:52 31.72660 -114.37727 35932 ft 474 kts 290°
2026-04-20 20:52 31.74889 -114.44510 35921 ft 474 kts 290°
2026-04-20 20:53 31.77268 -114.51768 35906 ft 474 kts 290°
2026-04-20 20:53 31.79647 -114.59037 35853 ft 455 kts 290°
2026-04-20 20:54 31.80778 -114.62499 35677 ft 446 kts 290°
2026-04-20 20:54 31.81783 -114.65585 35171 ft 445 kts 289°
2026-04-20 20:54 31.82745 -114.68542 34739 ft 445 kts 289°
2026-04-20 20:54 31.83779 -114.71717 34270 ft 443 kts 289°
2026-04-20 20:55 31.84808 -114.74878 33799 ft 441 kts 289°
2026-04-20 20:55 31.85823 -114.77999 33329 ft 438 kts 290°
2026-04-20 20:55 31.86835 -114.81115 32860 ft 436 kts 290°
2026-04-20 20:55 31.87882 -114.84338 32371 ft 433 kts 289°
2026-04-20 20:56 31.88907 -114.87499 31889 ft 431 kts 289°
2026-04-20 20:56 31.90004 -114.90885 31369 ft 429 kts 289°
2026-04-20 20:56 31.91087 -114.94231 30854 ft 426 kts 289°
2026-04-20 20:56 31.92156 -114.97538 30342 ft 424 kts 289°
2026-04-20 20:57 31.93236 -115.00882 29821 ft 422 kts 289°
2026-04-20 20:57 31.94305 -115.04196 29301 ft 419 kts 289°
2026-04-20 20:57 31.95372 -115.07514 28779 ft 416 kts 289°
2026-04-20 20:57 31.96420 -115.10769 28262 ft 414 kts 289°
2026-04-20 20:58 31.97487 -115.14089 27733 ft 411 kts 289°
2026-04-20 20:58 31.98527 -115.17328 27213 ft 409 kts 289°
2026-04-20 20:58 31.99551 -115.20517 26698 ft 407 kts 289°
2026-04-20 20:58 32.00567 -115.23691 26183 ft 406 kts 289°
2026-04-20 20:59 32.01556 -115.26781 25681 ft 403 kts 289°
2026-04-20 20:59 32.02486 -115.29686 25205 ft 400 kts 289°
2026-04-20 20:59 32.03418 -115.32602 24724 ft 397 kts 289°
2026-04-20 20:59 32.04392 -115.35652 24217 ft 395 kts 289°
2026-04-20 21:00 32.05350 -115.38655 23716 ft 392 kts 289°
2026-04-20 21:00 32.06282 -115.41577 23225 ft 390 kts 289°
2026-04-20 21:00 32.07264 -115.44664 22703 ft 388 kts 289°
2026-04-20 21:00 32.08228 -115.47693 22189 ft 385 kts 289°
2026-04-20 21:01 32.09218 -115.50808 21655 ft 383 kts 289°
2026-04-20 21:01 32.10130 -115.53681 21161 ft 380 kts 289°
2026-04-20 21:01 32.11011 -115.56457 20678 ft 378 kts 289°
2026-04-20 21:01 32.11919 -115.59324 20176 ft 375 kts 289°
2026-04-20 21:02 32.12824 -115.62181 19674 ft 373 kts 289°
2026-04-20 21:02 32.13725 -115.65049 19166 ft 370 kts 287°
2026-04-20 21:02 32.14089 -115.67685 18713 ft 366 kts 269°
2026-04-20 21:02 32.14092 -115.70392 18291 ft 364 kts 270°
2026-04-20 21:03 32.14117 -115.73264 17807 ft 362 kts 269°
2026-04-20 21:03 32.14139 -115.76461 17264 ft 359 kts 269°
2026-04-20 21:03 32.14160 -115.79624 16723 ft 355 kts 269°
2026-04-20 21:03 32.14182 -115.82693 16190 ft 352 kts 269°
2026-04-20 21:04 32.14202 -115.85624 15677 ft 351 kts 269°
2026-04-20 21:04 32.14290 -115.88580 15154 ft 349 kts 274°
2026-04-20 21:04 32.14644 -115.91449 14642 ft 350 kts 279°
2026-04-20 21:04 32.15206 -115.94289 14148 ft 348 kts 284°
2026-04-20 21:05 32.15916 -115.97091 13766 ft 346 kts 287°
2026-04-20 21:05 32.16687 -115.99728 13394 ft 344 kts 288°
2026-04-20 21:05 32.17534 -116.02366 13015 ft 342 kts 290°
2026-04-20 21:05 32.18424 -116.04967 12619 ft 332 kts 291°
2026-04-20 21:06 32.19302 -116.07430 12229 ft 323 kts 291°
2026-04-20 21:06 32.20159 -116.09771 11849 ft 315 kts 292°
2026-04-20 21:06 32.21064 -116.12197 11445 ft 307 kts 292°
2026-04-20 21:06 32.21954 -116.14552 11044 ft 300 kts 292°
2026-04-20 21:07 32.22823 -116.16824 10650 ft 295 kts 293°
2026-04-20 21:07 32.23685 -116.19069 10262 ft 293 kts 293°
2026-04-20 21:07 32.24499 -116.21172 9900 ft 293 kts 293°
2026-04-20 21:07 32.25330 -116.23311 9530 ft 292 kts 294°
2026-04-20 21:08 32.26195 -116.25534 9234 ft 290 kts 294°
2026-04-20 21:08 32.27042 -116.27703 8980 ft 287 kts 294°
2026-04-20 21:08 32.27848 -116.29764 8723 ft 280 kts 294°
2026-04-20 21:08 32.28602 -116.31687 8477 ft 274 kts 294°
2026-04-20 21:09 32.29380 -116.33669 8293 ft 262 kts 294°
2026-04-20 21:09 32.30125 -116.35566 8031 ft 253 kts 294°
2026-04-20 21:09 32.30781 -116.37237 7789 ft 246 kts 294°
2026-04-20 21:09 32.31422 -116.38873 7546 ft 239 kts 294°
2026-04-20 21:10 32.32109 -116.40623 7294 ft 236 kts 294°
2026-04-20 21:10 32.32786 -116.42347 7125 ft 235 kts 294°
2026-04-20 21:10 32.33418 -116.43957 6893 ft 235 kts 294°
2026-04-20 21:10 32.34069 -116.45606 6720 ft 234 kts 294°
2026-04-20 21:11 32.34740 -116.47296 6485 ft 233 kts 294°
2026-04-20 21:11 32.35389 -116.48926 6261 ft 216 kts 294°
2026-04-20 21:11 32.35996 -116.50452 6090 ft 208 kts 294°
2026-04-20 21:11 32.36615 -116.52017 5936 ft 208 kts 294°
2026-04-20 21:12 32.37214 -116.53533 5766 ft 209 kts 294°
2026-04-20 21:12 32.37785 -116.54981 5585 ft 200 kts 294°
2026-04-20 21:12 32.38332 -116.56370 5454 ft 196 kts 294°
2026-04-20 21:12 32.38884 -116.57775 5383 ft 196 kts 294°
2026-04-20 21:13 32.39430 -116.59168 5270 ft 196 kts 294°
2026-04-20 21:13 32.39955 -116.60501 5169 ft 196 kts 294°
2026-04-20 21:13 32.40491 -116.61864 5052 ft 196 kts 294°
2026-04-20 21:13 32.41050 -116.63283 4962 ft 196 kts 294°
2026-04-20 21:14 32.41604 -116.64691 4891 ft 195 kts 294°
2026-04-20 21:14 32.42128 -116.66026 4823 ft 195 kts 293°
2026-04-20 21:14 32.42668 -116.67399 4754 ft 195 kts 293°
2026-04-20 21:14 32.43200 -116.68753 4754 ft 195 kts 293°
2026-04-20 21:15 32.43654 -116.69910 4755 ft 195 kts 293°
2026-04-20 21:15 32.44144 -116.71161 4755 ft 195 kts 294°
2026-04-20 21:15 32.44665 -116.72490 4756 ft 195 kts 294°
2026-04-20 21:15 32.45219 -116.73735 4777 ft 181 kts 300°
2026-04-20 21:16 32.45870 -116.74784 4717 ft 175 kts 309°
2026-04-20 21:16 32.46581 -116.75711 4650 ft 160 kts 314°
2026-04-20 21:16 32.47257 -116.76525 4463 ft 153 kts 313°
2026-04-20 21:16 32.47907 -116.77353 4256 ft 151 kts 313°
2026-04-20 21:17 32.48489 -116.78135 4064 ft 151 kts 309°
2026-04-20 21:17 32.49032 -116.79012 3857 ft 151 kts 301°
2026-04-20 21:17 32.49514 -116.79967 3639 ft 150 kts 295°
2026-04-20 21:17 32.49957 -116.80980 3455 ft 149 kts 296°
2026-04-20 21:18 32.50398 -116.81931 3281 ft 149 kts 299°
2026-04-20 21:18 32.50851 -116.82877 3122 ft 149 kts 297°
2026-04-20 21:18 32.51326 -116.83807 2986 ft 147 kts 299°
2026-04-20 21:18 32.51792 -116.84777 2768 ft 148 kts 298°
2026-04-20 21:19 32.52204 -116.85742 2478 ft 146 kts 295°
2026-04-20 21:19 32.52522 -116.86607 2228 ft 144 kts 290°
2026-04-20 21:19 32.52773 -116.87528 1945 ft 141 kts 283°
2026-04-20 21:20 32.53083 -116.89431 1497 ft 134 kts 272°
2026-04-20 21:20 32.53194 -116.90371 1344 ft 134 kts 278°
2026-04-20 21:20 32.53326 -116.91313 1208 ft 134 kts 276°
2026-04-20 21:20 32.53466 -116.92275 1113 ft 133 kts 276°
2026-04-20 21:21 32.53596 -116.93205 962 ft 134 kts 276°
2026-04-20 21:21 32.53719 -116.94124 768 ft 133 kts 276°
2026-04-20 21:21 32.53841 -116.95032 634 ft 132 kts 276°
2026-04-20 21:21 32.53960 -116.95971 514 ft 127 kts 277°
2026-04-20 21:22 32.54053 -116.96668 503 ft 64 kts 278°
2026-04-20 21:22 32.54101 -116.97013 503 ft 30 kts 280°
2026-04-20 21:22 32.54164 -116.97228 503 ft 29 kts 301°
2026-04-20 21:22 32.54216 -116.97314 503 ft 0 kts 308°
2026-04-20 21:23 32.54229 -116.97333 503 ft 0 kts 308°
2026-04-20 21:23 32.54234 -116.97340 503 ft 8 kts 308°
2026-04-20 21:24 32.54344 -116.97407 503 ft 13 kts
2026-04-20 21:24 32.54434 -116.97406 503 ft 3 kts 311°
2026-04-20 21:24 32.54444 -116.97419 503 ft 0 kts 311°